                ,  0.301,  0.397,  0.494,  0.590,  0.687,  0.784,  0.880,  0.977,  1.073,  1.170,  1.267,  1.363,  1.460,  1.556,  1.653,  1.749,  1.846,  1.943,  2.039,  2.136,  2.232,  2.329,  2.426,  2.522,  2.619,  2.715,  2.812,  2.909,  3.005,  3.102,  3.198,  3.295,  3.392,  3.488,  3.585,  3.681,  3.778,  3.875,  3.971,  4.068,  4.164,  4.261,  4.357,  4.454,  4.551,  4.647,  4.744,  4.840,  4.937,  5.034,  5.130,  5.227,  5.323,  5.420,  5.517,  5.613,  5.710,  5.806,  5.903,  6.000,  6.096,  6.193,  6.289,  6.386,  6.483,  6.579,  6.676,  6.772,  6.869,  6.965,  7.062,  7.159,  7.255,  7.352,  7.448,  7.545,  7.642,  7.738,  7.835,  7.931
2015/02/02 00:00,  999.0,    0.3,   -0.0,   -0.2,  999.0,  999.0,  999.0,    0.1,   -0.0,   -0.1,    0.0,    0.3,    0.4,    0.7,    1.7,    1.0,    0.2,    0.0,   -0.0,   -0.1,    0.1,    0.0,   -0.0,    0.2,    0.3,   -0.0,   -0.0,    0.2,   -0.1,    0.0,    0.0,    0.0,   -0.0,    0.2,   -0.3,  999.0,  999.0,    0.4,    0.1,   -0.1,   -0.2,   -0.1,   -0.3,   -0.2,   -0.1,    0.1,    0.1,    0.2,   -0.1,    0.1,    0.1,    0.1,    0.1,   -0.1,   -0.1,    0.2,    0.3,    0.1,   -0.5,    0.2,   -0.0,   -0.0,   -0.1,   -0.0,    0.1,   -0.3,   -0.3,   -0.1,    0.2,  999.0,  999.0,  999.0,  999.0,  999.0,  999.0,  999.0,  999.0,  999.0,  999.0,  999.0
2015/02/02 00:10,  999.0,  999.0,    0.2,    0.0,  999.0,  999.0,  999.0,    0.0,   -0.1,    0.4,    0.4,    0.1,    0.0,    0.5,    0.4,    0.3,    0.1,   -0.1,   -0.1,   -0.1,    0.0,    0.1,    0.1,   -0.0,    0.0,    0.0,   -0.1,    0.1,   -0.1,    0.0,    0.1,    0.0,   -0.1,   -0.3,   -0.5,   -0.2,    0.1,    0.2,   -0.3,    0.0,   -0.0,   -0.3,   -0.0,   -0.0,    0.1,    0.1,    0.2,    0.0,    0.1,    0.1,   -0.3,   -0.0,    0.0,    0.1,    0.1,    0.1,    0.1,   -0.0,    0.0,    0.1,    0.0,   -0.0,   -0.0,    0.2,    0.0,    0.0,   -0.3,  999.0,   -0.1,  999.0,  999.0,  999.0,  999.0,  999.0,  999.0,  999.0,  999.0,  999.0,  999.0,  999.0
2015/02/02 00:20,  999.0,   -0.0,    0.3,    0.2,    0.1,    0.1,    0.2,    0.0,   -0.1,   -0.2,   -0.6,   -0.6,   -0.5,   -0.8,    0.6,    0.2,   -0.1,   -0.2,   -0.1,    0.0,    0.0,    0.1,   -0.1,   -0.1,   -0.1,   -0.1,   -0.2,    0.1,    0.2,   -0.0,   -0.0,    0.1,   -0.1,   -0.1,   -0.0,   -0.4,    0.1,    0.0,   -0.2,  999.0,   -0.2,   -0.0,   -0.1,   -0.2,   -0.1,   -0.1,    0.0,   -0.1,   -0.1,    0.1,    0.1,   -0.1,   -0.0,   -0.1,    0.1,   -0.0,   -0.1,   -0.0,    0.1,    0.0,   -0.1,    0.0,    0.1,    0.1,   -0.2,   -0.3,  999.0,   -0.1,   -0.0,  999.0,  999.0,   -0.2,  999.0,  999.0,  999.0,  999.0,  999.0,  999.0,  999.0,  999.0
2015/02/02 00:30,  999.0,   -0.0,   -0.1,    0.0,    0.1,   -0.0,    0.3,    0.0,   -0.2,    0.3,  999.0,  999.0,   -0.7,   -0.6,   -0.4,   -0.3,   -0.8,   -0.3,   -0.1,   -0.0,    0.0,   -0.1,   -0.1,   -0.5,   -0.3,   -0.2,   -0.0,   -0.1,   -0.0,    0.3,   -0.2,   -0.2,    0.2,    0.1,  999.0,   -0.1,  999.0,    0.1,  999.0,   -0.1,   -0.1,   -0.0,    0.0,   -0.2,   -0.2,    0.2,    0.1,    0.1,    0.1,   -0.2,    0.0,    0.0,   -0.1,   -0.3,    0.2,    0.2,   -0.1,   -0.1,    0.1,   -0.2,   -0.3,   -0.4,   -0.1,   -0.0,   -0.2,    0.1,    0.3,  999.0,    0.2,  999.0,  999.0,  999.0,  999.0,  999.0,  999.0,  999.0,  999.0,  999.0,  999.0,  999.0
2015/02/02 00:40,  999.0,    0.1,    0.2,    0.1,    0.0,    0.0,    0.0,    0.0,   -0.2,    0.1,    0.3,    0.6,    0.3,   -0.1,    0.1,   -0.0,   -0.1,   -0.0,    0.1,    0.0,   -0.3,    0.1,    0.4,    0.1,    0.1,  999.0,  999.0,    0.0,    0.3,  999.0,  999.0,    0.2,   -0.0,    0.2,    0.2,  999.0,  999.0,    0.2,   -0.1,   -0.1,   -0.3,    0.1,   -0.1,    0.2,   -0.0,   -0.1,    0.1,    0.0,   -0.0,    0.0,   -0.1,   -0.2,   -0.3,    0.0,    0.3,   -0.0,    0.2,    0.1,   -0.1,    0.0,    0.0,    0.1,    0.2,   -0.1,    0.1,   -0.0,   -0.2,   -0.1,  999.0,  999.0,  999.0,  999.0,  999.0,  999.0,  999.0,  999.0,  999.0,  999.0,  999.0,  999.0
2015/02/02 00:50,  999.0,   -0.0,    0.2,    0.1,    0.2,    0.1,    0.2,    0.5,    0.6,    0.6,    0.5,   -0.2,   -0.4,   -0.7,    0.4,    0.1,    0.5,    0.0,    0.1,   -0.0,    0.0,    0.1,  999.0,   -0.3,    0.1,   -0.4,   -0.0,    0.1,   -0.1,    0.1,    0.0,    0.3,  999.0,    0.0,    0.4,    0.2,    0.3,    0.2,    0.1,    0.2,  999.0,   -0.3,  999.0,   -0.0,    0.0,   -0.1,    0.1,   -0.2,   -0.1,    0.1,    0.0,    0.2,    0.6,   -0.1,    0.1,   -0.1,    0.0,    0.1,    0.1,   -0.0,   -0.1,   -0.3,    0.1,    0.1,   -0.3,   -0.2,  999.0,  999.0,  999.0,  999.0,  999.0,  999.0,  999.0,  999.0,  999.0,  999.0,  999.0,  999.0,  999.0,  999.0
2015/02/02 01:00,  999.0,    0.1,    0.3,   -0.0,   -0.1,    0.1,    0.2,    0.3,    0.4,    0.7,   -0.0,    0.7,   -0.0,   -0.7,   -0.1,   -0.6,   -0.1,    0.0,   -0.2,   -0.1,    0.1,   -0.0,    0.2,    0.4,   -0.0,   -0.1,   -0.0,   -0.1,    0.0,    0.1,    0.1,    0.5,  999.0,  999.0,  999.0,    0.0,   -0.1,   -0.0,  999.0,   -0.2,   -0.4,   -0.4,   -0.3,   -0.2,   -0.2,    0.0,   -0.1,    0.1,   -0.1,    0.1,   -0.1,    0.1,    0.1,    0.1,   -0.1,    0.0,    0.1,    0.2,    0.1,    0.1,   -0.1,    0.1,    0.3,    0.0,    0.0,    0.0,   -0.1,   -0.1,   -0.1,  999.0,  999.0,  999.0,   -0.5,  999.0,  999.0,  999.0,  999.0,  999.0,  999.0,  999.0
2015/02/02 01:10,  999.0,    0.1,    0.1,    0.6,    0.1,    0.1,    0.1,   -0.0,   -0.0,    0.0,    0.4,    0.9,    1.0,    2.3,    1.8,    0.6,   -0.1,   -0.0,   -0.1,   -0.1,   -0.1,   -0.3,   -0.1,    0.1,   -0.1,    0.0,    0.1,   -0.1,    0.0,   -0.0,    0.1,   -0.2,    0.1,  999.0,  999.0,    0.1,    0.1,    0.5,   -0.2,  999.0,   -0.5,   -0.5,   -0.1,    0.0,    0.0,   -0.0,   -0.1,   -0.1,   -0.1,   -0.1,    0.2,   -0.1,    0.1,   -0.1,    0.0,   -0.0,    0.1,   -0.1,   -0.3,   -0.3,   -0.0,   -0.2,   -0.3,    0.1,    0.1,   -0.1,   -0.1,    0.2,    0.2,  999.0,  999.0,    0.1,  999.0,  999.0,  999.0,  999.0,  999.0,  999.0,  999.0,  999.0
2015/02/02 01:20,  999.0,    0.5,    1.4,    2.7,    1.1,    0.2,    0.5,    0.2,   -0.1,    0.1,    0.1,    0.1,    1.0,  999.0,  999.0,    0.9,    0.1,    0.0,    0.1,   -0.1,    0.0,   -0.0,   -0.1,   -0.3,    0.1,    0.3,    0.2,    0.0,   -0.2,   -0.1,   -0.1,    0.0,    0.3,    0.1,    0.1,    0.7,  999.0,   -0.0,    0.3,    0.0,   -0.3,   -0.2,   -0.0,   -0.0,   -0.1,   -0.1,   -0.2,   -0.4,   -0.0,  999.0,   -0.1,    0.3,    0.0,   -0.2,    0.1,   -0.3,    0.1,    0.3,   -0.3,    0.0,    0.0,   -0.2,    0.0,   -0.3,   -0.2,    0.1,    0.1,  999.0,  999.0,  999.0,   -0.6,  999.0,  999.0,  999.0,  999.0,  999.0,  999.0,  999.0,  999.0,  999.0
2015/02/02 01:30,  999.0,    0.9,    2.8,    3.0,    1.7,    1.3,    1.2,    1.5,    0.8,    1.1,    0.2,   -0.0,   -0.2,  999.0,    0.5,  999.0,   -0.3,    0.2,    0.0,  999.0,   -0.0,    0.4,   -0.1,   -0.1,   -0.1,   -0.1,    0.2,    0.1,    0.1,   -0.1,    0.2,   -0.2,    0.0,    0.1,   -0.1,    0.1,   -0.0,    0.5,    0.2,    0.1,   -0.3,   -0.4,    0.0,    0.0,    0.1,  999.0,   -0.1,   -0.1,    0.3,   -0.2,    0.2,   -0.3,    0.3,   -0.2,   -0.1,   -0.1,   -0.4,   -0.1,    0.1,   -0.3,    0.2,    0.2,    0.0,   -0.3,   -0.4,  999.0,  999.0,  999.0,  999.0,    0.6,  999.0,  999.0,  999.0,  999.0,  999.0,  999.0,  999.0,  999.0,  999.0,  999.0
2015/02/02 01:40,  999.0,    0.2,    0.5,    0.9,    0.4,   -0.1,    0.2,   -0.1,    0.1,   -0.6,   -0.5,    1.7,    0.5,    0.4,  999.0,    1.9,   -0.0,    0.3,   -0.0,    0.2,    0.0,   -0.0,    0.0,    0.0,   -0.2,    0.1,   -0.0,    0.1,    0.0,    0.0,    0.1,    0.1,    0.4,   -0.2,    0.2,   -0.1,    0.3,   -0.1,   -0.4,    0.3,   -0.9,   -0.2,    0.3,    0.0,    0.2,    0.0,    0.0,    0.1,   -0.1,    0.2,    0.1,    0.1,    0.1,   -0.1,    0.0,    0.0,   -0.1,    0.0,    0.0,    0.2,   -0.0,    0.1,    0.0,   -0.0,   -0.1,    0.1,    0.1,    0.2,   -0.2,    0.3,  999.0,  999.0,    0.2,  999.0,  999.0,  999.0,  999.0,  999.0,  999.0,  999.0
2015/02/02 01:50,  999.0,    0.2,    1.9,    1.2,    0.2,   -0.5,    0.7,    0.7,    0.3,   -0.0,    0.1,    0.1,    0.6,    1.3,    1.7,    1.4,   -0.0,    0.2,    0.2,   -0.0,   -0.3,    0.1,    0.1,    0.1,   -0.1,   -0.1,   -0.1,   -0.2,   -0.1,   -0.1,    0.1,    0.0,    0.2,   -0.1,    0.1,    0.0,    0.1,    0.1,   -0.1,   -0.2,   -0.5,   -0.3,  999.0,    0.0,   -0.3,   -0.0,    0.0,    0.1,   -0.2,    0.1,    0.1,    0.1,   -0.2,    0.2,   -0.1,   -0.1,   -0.2,   -0.2,   -0.1,   -0.1,    0.1,   -0.0,   -0.1,   -0.3,    0.1,    0.2,    0.2,    0.1,  999.0,  999.0,  999.0,  999.0,  999.0,  999.0,  999.0,  999.0,  999.0,  999.0,  999.0,  999.0
2015/02/02 02:00,  999.0,    0.9,    0.6,    1.2,  999.0,    0.4,    0.6,   -0.2,    0.6,    0.4,   -0.7,   -0.3,    0.7,  999.0,  999.0,  999.0,   -0.9,   -0.1,   -0.1,   -0.1,   -0.1,   -0.3,    0.2,   -0.0,   -0.1,    0.3,    0.3,    0.2,    0.2,    0.0,   -0.1,   -0.1,    0.1,    0.2,    0.3,    0.6,   -0.1,   -0.3,    0.3,  999.0,   -0.4,   -0.3,    0.3,  999.0,   -0.1,  999.0,    0.2,    0.1,   -0.2,   -0.1,   -0.0,   -0.0,    0.2,   -0.6,  999.0,   -0.1,   -0.2,    0.1,    0.0,   -0.1,    0.1,    0.0,    0.1,    0.2,    0.1,    0.1,   -0.0,   -0.2,    0.1,    0.3,  999.0,  999.0,  999.0,  999.0,  999.0,  999.0,  999.0,  999.0,  999.0,  999.0
2015/02/02 02:10,  999.0,    0.6,    1.6,    1.9,   -0.1,   -0.2,   -0.2,    0.3,    0.4,    0.7,    0.1,    0.1,    0.1,    0.4,    0.4,   -0.1,   -0.3,    0.2,   -0.1,   -0.2,    0.1,   -0.1,   -0.2,   -0.1,  999.0,   -0.2,   -0.2,    0.2,    0.4,    0.2,    0.0,   -0.1,   -0.1,   -0.2,    0.1,    0.6,   -0.1,   -0.0,    0.1,   -0.1,    0.2,   -0.2,   -0.3,   -0.1,    0.0,  999.0,   -0.1,   -0.0,   -0.0,    0.1,    0.1,    0.1,   -0.2,   -0.3,    0.0,   -0.0,    0.2,    0.3,    0.2,    0.1,   -0.3,    0.0,   -0.0,   -0.3,   -0.1,   -0.1,    0.3,    0.1,   -0.1,  999.0,  999.0,  999.0,  999.0,  999.0,  999.0,  999.0,  999.0,  999.0,  999.0,  999.0
2015/02/02 02:20,  999.0,    2.0,    1.3,    2.0,    1.7,    1.5,    0.8,    0.7,    0.5,    0.3,    0.0,   -0.1,   -0.6,  999.0,   -1.0,    0.1,    0.5,   -0.0,    0.4,    0.1,    0.0,   -0.7,   -0.8,    0.5,   -0.3,   -0.2,    0.1,    0.1,    0.0,    0.1,    0.3,    0.0,    0.1,   -0.2,   -0.0,  999.0,   -0.2,   -0.1,   -0.0,   -0.2,   -0.2,   -0.0,   -0.3,  999.0,    0.2,  999.0,   -0.2,    0.2,  999.0,    0.2,    0.1,  999.0,    0.1,    0.4,   -0.1,   -0.2,    0.3,   -0.1,    0.0,  999.0,  999.0,    0.3,   -0.0,   -0.2,   -0.0,    0.3,  999.0,    0.0,   -0.2,  999.0,  999.0,  999.0,  999.0,  999.0,  999.0,  999.0,  999.0,  999.0,  999.0,  999.0
2015/02/02 02:30,  999.0,    0.9,    0.4,  999.0,    1.3,    1.0,    0.9,    0.3,    0.1,    0.4,    0.1,    0.3,   -1.0,    0.5,   -0.5,    1.4,    1.4,    0.4,   -0.1,   -0.0,    0.3,    0.2,    0.4,    0.3,   -0.1,   -0.0,   -0.1,    0.0,   -0.1,    0.2,    0.2,   -0.2,   -0.2,   -0.1,    0.1,    0.1,  999.0,    0.2,    0.3,   -0.0,   -0.2,    0.2,    0.1,   -0.1,  999.0,  999.0,   -0.1,   -0.0,    0.1,    0.2,   -0.0,   -0.2,  999.0,  999.0,    0.2,  999.0,   -0.1,   -0.0,    0.2,    0.1,  999.0,    0.1,   -0.1,    0.2,    0.2,    0.0,    0.4,    0.1,    0.1,  999.0,  999.0,  999.0,  999.0,  999.0,  999.0,  999.0,  999.0,  999.0,  999.0,  999.0
2015/02/02 02:40,  999.0,    1.0,    1.9,    0.4,    1.6,    1.2,    1.2,    0.8,    0.2,    0.4,    0.7,    0.4,    0.3,    0.7,    1.8,    2.7,    1.3,    0.1,    0.2,   -0.0,    0.0,   -0.0,   -0.0,    0.0,    0.1,   -0.2,   -0.1,   -0.1,   -0.2,    0.2,    0.1,   -0.2,    0.1,    0.3,    0.5,    0.1,   -0.5,    0.3,   -0.2,    0.2,    0.0,  999.0,   -0.0,   -0.6,   -0.3,   -0.0,  999.0,    0.1,    0.1,   -0.1,   -0.3,   -0.0,    0.2,    0.0,    0.4,  999.0,   -0.2,    0.3,    0.2,  999.0,    0.1,  999.0,    0.1,  999.0,  999.0,  999.0,  999.0,  999.0,   -0.0,  999.0,  999.0,  999.0,  999.0,  999.0,  999.0,  999.0,  999.0,  999.0,  999.0,  999.0
2015/02/02 02:50,  999.0,    0.1,    0.5,   -0.0,    1.8,    0.1,    0.2,    0.4,    0.2,    0.0,  999.0,   -0.9,  999.0,  999.0,  999.0,  999.0,   -0.3,   -0.1,    0.2,    0.1,   -0.1,   -0.1,   -0.0,    0.1,    0.2,  999.0,   -0.0,    0.2,    0.1,    0.0,    0.1,   -0.3,    0.1,  999.0,    0.1,  999.0,   -0.1,   -0.1,    0.4,    0.1,   -0.4,   -0.1,  999.0,   -0.5,   -0.4,  999.0,    0.1,    0.1,    0.1,    0.4,   -0.2,    0.1,    0.3,    0.2,   -0.1,   -0.0,    0.1,   -0.3,  999.0,    0.1,    0.3,   -0.2,  999.0,  999.0,    0.1,  999.0,    0.3,   -0.0,    0.1,  999.0,  999.0,  999.0,  999.0,  999.0,  999.0,  999.0,  999.0,  999.0,  999.0,  999.0
2015/02/02 03:00,  999.0,    1.0,    1.0,    1.8,    1.7,    0.9,    1.0,    0.5,    0.2,    0.2,    0.0,    0.1,   -0.0,   -1.1,   -2.4,   -2.6,   -0.7,   -0.0,    0.0,    0.0,    0.2,   -0.1,   -0.2,   -0.1,    0.0,   -0.2,    0.2,    0.0,    0.0,   -0.1,    0.0,   -0.0,    0.1,    0.1,    0.0,  999.0,  999.0,    0.2,   -0.3,   -0.3,   -0.0,   -0.0,    0.0,   -0.3,    0.1,    0.0,   -0.3,   -0.0,   -0.4,    0.1,   -0.0,    0.1,    0.2,    0.2,    0.2,    0.0,   -0.2,   -0.0,    0.1,  999.0,    0.1,   -0.2,   -0.2,  999.0,    0.2,   -0.0,   -0.1,   -0.2,   -0.2,  999.0,  999.0,  999.0,  999.0,  999.0,  999.0,  999.0,  999.0,  999.0,  999.0,  999.0
2015/02/02 03:10,  999.0,    0.4,    1.3,    0.3,    0.6,    1.0,    0.1,    0.2,    0.1,   -0.0,    0.1,   -0.1,   -0.2,   -0.5,   -0.3,   -0.9,  999.0,   -2.1,    0.1,   -0.4,   -0.4,  999.0,  999.0,   -0.2,   -0.0,    0.1,    0.2,    0.1,   -0.0,    0.0,    0.0,    0.0,    0.4,  999.0,    0.1,  999.0,   -0.4,    0.3,   -0.0,   -0.0,  999.0,    0.0,    0.2,    0.6,    0.2,  999.0,    0.1,    0.1,    0.4,   -0.0,   -0.1,  999.0,   -0.3,    0.0,   -0.3,    0.0,    0.4,    0.4,  999.0,  999.0,   -0.6,    0.2,    0.3,   -0.1,   -0.2,  999.0,    0.4,  999.0,  999.0,    0.1,  999.0,  999.0,  999.0,  999.0,  999.0,  999.0,  999.0,  999.0,  999.0,  999.0
2015/02/02 03:20,  999.0,    0.1,    0.4,    0.9,    0.5,    0.3,    0.3,   -0.0,   -0.1,   -0.0,    0.2,   -0.3,   -0.2,   -0.5,   -1.0,   -1.3,   -2.1,   -2.0,   -0.6,   -0.4,   -0.2,   -0.1,   -0.2,    0.4,   -0.1,    0.1,   -0.0,   -0.1,   -0.0,    0.2,   -0.1,   -0.1,  999.0,    0.3,   -0.1,  999.0,   -0.2,    0.3,  999.0,  999.0,  999.0,   -0.5,   -0.1,   -0.5,  999.0,    0.1,    0.0,    0.2,    0.3,   -0.2,  999.0,  999.0,   -0.6,   -0.4,   -0.2,   -0.1,    0.1,    0.1,    0.2,  999.0,    0.2,    0.2,    0.1,   -0.3,    0.3,    0.2,   -0.1,  999.0,  999.0,  999.0,  999.0,  999.0,  999.0,  999.0,  999.0,  999.0,  999.0,  999.0,  999.0,  999.0
2015/02/02 03:30,  999.0,   -0.1,    0.2,    0.4,    0.3,  999.0,  999.0,    0.3,    0.3,    0.1,   -0.0,    0.3,    0.0,   -0.5,   -0.3,   -0.6,   -0.1,   -0.3,   -0.3,    0.0,   -0.1,    0.0,   -0.1,    0.0,   -0.1,    0.1,   -0.0,   -0.1,   -0.1,    0.0,   -0.0,   -0.1,    0.2,    0.3,   -0.0,  999.0,  999.0,    0.1,   -0.1,   -0.2,    0.1,   -0.2,   -0.2,  999.0,   -0.1,    0.1,   -0.2,   -0.1,   -0.1,   -0.2,  999.0,  999.0,  999.0,  999.0,   -0.2,    0.2,    0.3,   -0.0,   -0.4,   -0.1,    0.1,   -0.5,    0.3,    0.0,    0.3,    0.3,   -0.2,    0.1,  999.0,    0.4,  999.0,  999.0,  999.0,  999.0,  999.0,  999.0,  999.0,  999.0,  999.0,  999.0
2015/02/02 03:40,  999.0,    0.2,    0.9,    1.4,    1.7,    0.9,    0.7,    0.8,    0.7,   -0.0,    0.3,    0.1,   -0.3,   -0.5,   -0.2,   -0.2,   -0.5,   -0.4,    0.0,   -0.6,   -0.3,    0.1,    0.3,    0.0,    0.1,   -0.0,    0.0,    0.3,   -0.0,    0.1,    0.4,   -0.2,    0.0,    0.3,    0.1,  999.0,  999.0,  999.0,   -0.0,   -0.4,   -0.5,  999.0,    0.3,    0.2,    0.2,    0.1,  999.0,   -0.2,   -0.1,   -0.1,   -0.2,    0.1,   -0.2,   -0.0,    0.0,   -0.2,   -0.2,   -0.2,    0.0,    0.1,    0.2,   -0.1,   -0.0,    0.0,  999.0,   -0.3,    0.0,   -0.0,  999.0,  999.0,    0.7,  999.0,  999.0,   -0.1,  999.0,  999.0,  999.0,  999.0,  999.0,  999.0
2015/02/02 03:50,  999.0,    0.1,    0.7,    0.8,    0.3,    0.6,    0.5,    1.2,    0.5,    0.9,    0.4,    0.3,   -0.2,    0.1,   -0.2,   -0.1,   -0.2,   -0.1,   -1.4,   -1.1,   -0.2,   -0.2,   -0.1,   -0.2,    0.1,   -0.2,   -0.2,   -0.2,   -0.1,    0.1,    0.4,    0.1,    0.3,   -0.1,    0.3,  999.0,    0.1,   -0.0,    0.2,  999.0,   -0.2,   -0.2,    0.2,    0.2,  999.0,    0.2,   -0.0,    0.1,    0.1,    0.6,    0.0,   -0.2,   -0.2,   -0.1,    0.1,    0.5,   -0.4,   -0.1,   -0.0,   -0.2,   -0.1,   -0.0,    0.0,    0.4,    0.1,   -0.1,  999.0,  999.0,  999.0,  999.0,  999.0,  999.0,  999.0,  999.0,  999.0,  999.0,  999.0,  999.0,  999.0,  999.0
2015/02/02 04:00,  999.0,    0.1,    0.1,    0.7,    0.8,    1.1,    1.5,    1.2,    1.1,    1.0,    0.6,    0.4,    0.1,    0.1,    0.0,    0.2,    0.1,    0.4,  999.0,    0.2,    0.3,    0.0,   -0.1,   -0.1,   -0.1,    0.2,    0.2,    0.2,   -0.1,    0.3,    0.2,   -0.3,    0.2,    0.5,  999.0,    0.2,  999.0,   -0.1,    0.2,  999.0,   -0.1,   -0.4,  999.0,    0.2,  999.0,    0.2,    0.0,  999.0,   -0.0,    0.2,    0.2,   -0.1,    0.0,    0.0,    0.0,   -0.0,    0.7,   -0.1,    0.0,   -0.2,   -0.2,    0.3,   -0.1,  999.0,   -0.0,   -0.2,    0.2,    0.2,    0.3,  999.0,  999.0,  999.0,  999.0,  999.0,  999.0,  999.0,  999.0,  999.0,  999.0,  999.0
2015/02/02 04:10,  999.0,   -0.0,   -0.0,   -0.0,    0.4,    0.3,    0.5,    0.3,    0.3,    0.2,    0.2,    0.1,    0.0,   -0.1,   -0.1,    0.1,   -0.1,   -0.0,   -0.4,  999.0,    0.1,   -0.1,    0.1,   -0.3,   -0.2,   -0.2,   -0.2,    0.2,   -0.1,    0.1,    0.2,    0.5,   -0.0,  999.0,    0.1,   -0.1,   -0.0,    0.0,   -0.0,    0.0,   -0.5,   -0.2,    0.1,  999.0,   -0.0,   -0.1,  999.0,   -0.1,    0.1,    0.3,  999.0,   -0.1,  999.0,   -0.1,   -0.1,   -0.1,   -0.2,    0.0,   -0.2,    0.0,   -0.0,   -0.2,    0.0,    0.3,    0.4,  999.0,    0.4,    0.1,   -0.1,  999.0,  999.0,  999.0,  999.0,  999.0,  999.0,  999.0,  999.0,  999.0,  999.0,  999.0
2015/02/02 04:20,  999.0,  999.0,    0.1,    0.2,    0.3,    0.4,    0.2,    0.2,    0.2,    0.2,    0.2,   -0.0,    0.0,    0.0,    0.0,   -0.0,    0.1,    0.0,   -0.0,    0.1,    0.1,    0.1,    0.1,   -0.2,    0.0,   -0.0,    0.0,   -0.2,   -0.1,   -0.1,   -0.2,   -0.0,    0.0,    0.0,   -0.0,    0.2,   -0.1,   -0.2,   -0.1,    0.2,   -0.1,   -0.2,    0.0,  999.0,    0.2,    0.2,    0.1,    0.1,    0.1,  999.0,  999.0,  999.0,   -0.2,    0.1,   -0.2,   -0.3,   -0.4,   -0.1,    0.1,    0.1,   -0.1,    0.0,    0.3,   -0.1,    0.3,  999.0,  999.0,  999.0,  999.0,  999.0,  999.0,  999.0,  999.0,  999.0,  999.0,  999.0,  999.0,  999.0,  999.0,  999.0
2015/02/02 04:30,  999.0,   -0.0,    0.0,    0.2,    0.1,    0.1,    0.2,    0.0,   -0.1,    0.1,    0.1,   -0.0,   -0.1,   -0.0,   -0.0,    0.0,   -0.0,    0.1,    0.1,    0.1,    0.4,   -0.1,   -0.1,   -0.2,   -0.1,   -0.0,    0.1,   -0.2,   -0.2,    0.1,    0.1,   -0.1,    0.1,   -0.0,   -0.8,   -0.4,    0.0,  999.0,   -0.0,   -0.0,  999.0,   -0.4,   -0.2,   -0.1,  999.0,    0.3,    0.2,    0.2,   -0.1,    0.0,   -0.3,    0.1,    0.1,  999.0,   -0.3,   -0.1,    0.1,   -0.2,    0.0,    0.1,   -0.2,   -0.5,   -0.2,    0.3,    0.1,   -0.2,   -0.2,   -0.3,  999.0,   -0.2,    0.2,    0.0,    0.1,    0.5,  999.0,  999.0,  999.0,  999.0,  999.0,  999.0
2015/02/02 04:40,  999.0,  999.0,   -0.1,    0.6,    0.4,    0.2,    0.2,    0.1,    0.0,   -0.0,    0.2,   -0.0,    0.1,   -0.1,   -0.2,   -0.0,   -0.1,    0.1,    0.0,    0.0,   -0.2,   -0.1,    0.0,   -0.0,   -0.1,   -0.1,    0.0,    0.1,    0.0,    0.2,    0.0,    0.2,   -0.1,    0.0,   -0.1,   -0.1,   -0.1,    0.0,   -0.1,    0.2,    0.0,   -0.3,   -0.2,    0.0,    0.3,    0.2,    0.4,   -0.2,  999.0,    0.2,  999.0,  999.0,   -0.3,   -0.3,   -0.0,   -0.3,    0.1,    0.2,    0.0,    0.2,    0.3,    0.1,  999.0,    0.0,    0.0,   -0.0,    0.1,   -0.0,  999.0,  999.0,  999.0,  999.0,  999.0,  999.0,  999.0,  999.0,  999.0,  999.0,  999.0,  999.0
2015/02/02 04:50,  999.0,    0.0,   -0.1,    0.2,    0.3,    0.2,    0.3,    0.1,    0.0,    0.1,    0.1,    0.1,    0.2,    0.1,    0.0,    0.0,    0.0,    0.1,    0.1,   -0.1,   -0.0,   -0.0,   -0.1,    0.0,   -0.0,   -0.1,   -0.1,   -0.1,   -0.0,    0.3,    0.1,   -0.0,  999.0,   -0.0,   -0.0,   -0.2,    0.1,   -0.2,    0.0,    0.1,   -0.2,   -0.0,   -0.1,   -0.0,   -0.0,   -0.3,    0.2,   -0.0,   -0.2,    0.1,  999.0,  999.0,    0.2,    0.2,  999.0,    0.2,    0.4,    0.3,    0.3,    0.1,    0.1,    0.4,    0.1,    0.1,    0.3,    0.5,    0.1,    0.7,  999.0,  999.0,  999.0,  999.0,  999.0,  999.0,  999.0,  999.0,  999.0,  999.0,  999.0,  999.0
2015/02/02 05:00,  999.0,    0.1,   -0.2,   -0.1,    0.1,    0.2,    0.0,    0.1,    0.1,    0.0,    0.3,    0.2,    0.1,    0.3,    0.1,   -0.0,    0.1,    0.1,   -0.1,   -0.2,   -0.5,   -0.3,    0.1,   -0.1,   -0.0,   -0.0,    0.1,    0.1,    0.1,    0.1,   -0.1,   -0.5,  999.0,    0.2,   -0.3,   -0.1,    0.6,    0.2,    0.0,   -0.1,   -0.4,   -0.2,   -0.1,    0.0,  999.0,   -0.2,   -0.1,  999.0,  999.0,    0.1,  999.0,   -0.1,   -0.2,   -0.1,   -0.4,   -0.2,    0.3,  999.0,   -0.2,    0.1,    0.1,    0.2,   -0.0,   -0.0,   -0.1,    0.2,   -0.1,   -0.0,  999.0,  999.0,  999.0,  999.0,  999.0,  999.0,  999.0,  999.0,  999.0,  999.0,  999.0,  999.0
2015/02/02 05:10,  999.0,  999.0,   -0.0,   -0.0,    0.1,    0.0,   -0.0,    0.1,    0.0,    0.1,    0.1,    0.0,    0.1,    0.0,   -0.0,   -0.0,    0.0,   -0.0,   -0.1,   -0.2,   -0.6,   -0.5,    0.0,    0.2,   -0.0,   -0.0,   -0.0,   -0.0,   -0.1,    0.1,    0.0,   -0.0,   -0.2,    0.1,   -0.1,   -0.7,   -0.3,   -0.2,   -0.2,    0.0,   -0.3,  999.0,    0.2,  999.0,  999.0,    0.1,    0.5,    0.0,  999.0,    0.3,    0.0,    0.4,   -0.0,    0.3,    0.2,   -0.1,    0.2,  999.0,   -0.0,    0.0,    0.2,    0.6,   -0.1,   -0.1,   -0.2,   -0.1,   -0.1,   -0.0,    0.4,  999.0,  999.0,  999.0,  999.0,  999.0,  999.0,  999.0,  999.0,  999.0,  999.0,  999.0
2015/02/02 05:20,  999.0,  999.0,   -0.0,   -0.1,    0.0,   -0.1,  999.0,   -0.1,   -0.1,    0.1,    0.2,    0.2,    0.1,   -0.2,   -0.1,   -0.0,   -0.1,   -0.1,    0.0,   -0.1,   -0.5,   -0.2,    0.0,   -0.0,   -0.1,   -0.1,    0.1,   -0.1,    0.0,   -0.0,    0.1,   -0.1,    0.1,   -0.1,   -0.2,  999.0,   -0.5,    0.2,   -0.1,    0.3,   -0.5,   -0.2,   -0.1,    0.1,    0.1,  999.0,    0.3,   -0.4,   -0.2,  999.0,   -0.1,   -0.1,    0.2,    0.3,    0.2,  999.0,    0.2,    0.1,   -0.1,    0.0,  999.0,   -0.0,    0.1,  999.0,   -0.1,  999.0,   -0.0,  999.0,  999.0,  999.0,  999.0,  999.0,  999.0,  999.0,  999.0,  999.0,  999.0,  999.0,  999.0,  999.0
2015/02/02 05:30,  999.0,  999.0,   -0.1,   -0.1,   -0.2,    0.0,    0.2,    0.0,    0.1,    0.1,    0.0,    0.1,   -0.1,   -0.2,   -0.1,   -0.1,   -0.1,   -0.1,   -0.0,   -0.1,   -0.1,   -0.1,   -0.0,    0.1,   -0.0,   -0.1,   -0.2,   -0.1,    0.1,   -0.1,   -0.1,   -0.0,    0.1,   -0.2,   -0.2,   -0.2,    0.3,    0.1,   -0.2,   -0.0,   -0.2,   -0.4,   -0.1,   -0.2,    0.1,   -0.3,    0.1,   -0.0,   -0.5,    0.2,    0.2,   -0.1,    0.2,   -0.0,    0.0,    0.5,   -0.2,   -0.5,    0.0,   -0.1,    0.2,    0.1,   -0.4,   -0.1,   -0.1,   -0.2,   -0.3,  999.0,  999.0,  999.0,  999.0,  999.0,  999.0,  999.0,  999.0,  999.0,  999.0,  999.0,  999.0,  999.0
2015/02/02 05:40,  999.0,  999.0,   -0.1,    0.0,    0.0,   -0.1,   -0.0,    0.0,    0.0,   -0.0,   -0.0,    0.2,   -0.0,   -0.2,   -0.1,   -0.1,   -0.0,   -0.2,   -0.2,   -0.2,   -0.1,   -0.1,   -0.0,    0.0,   -0.0,   -0.0,    0.2,   -0.1,    0.0,   -0.0,    0.0,    0.0,    0.0,   -0.1,    0.2,   -0.2,   -0.0,   -0.1,    0.1,    0.4,   -0.3,  999.0,   -0.1,   -0.0,   -0.0,    0.0,  999.0,    0.2,   -0.0,   -0.0,    0.0,    0.2,   -0.2,    0.0,   -0.1,   -0.4,   -0.4,    0.4,    0.4,   -0.1,    0.4,   -0.1,   -0.1,    0.1,   -0.2,   -0.0,   -0.0,  999.0,  999.0,  999.0,  999.0,  999.0,  999.0,  999.0,  999.0,  999.0,  999.0,  999.0,  999.0,  999.0
2015/02/02 05:50,  999.0,  999.0,   -0.0,   -0.1,   -0.1,   -0.0,   -0.0,    0.0,    0.1,    0.0,   -0.1,    0.0,   -0.0,    0.1,   -0.1,   -0.2,   -0.1,   -0.1,    0.0,   -0.1,   -0.2,   -0.2,   -0.1,   -0.0,    0.1,    0.1,   -0.0,   -0.0,   -0.0,    0.1,   -0.0,   -0.0,   -0.1,   -0.1,    0.0,  999.0,   -0.3,    0.2,    0.1,   -0.2,   -0.4,   -0.8,    0.1,   -0.0,    0.2,    0.1,    0.1,   -0.2,   -0.1,   -0.1,   -0.1,   -0.4,    0.1,   -0.2,   -0.1,   -0.0,   -0.2,   -0.1,   -0.1,    0.0,    0.1,    0.1,    0.1,    0.1,    0.1,  999.0,  999.0,  999.0,  999.0,  999.0,  999.0,  999.0,  999.0,  999.0,  999.0,  999.0,  999.0,  999.0,  999.0,  999.0
2015/02/02 06:00,  999.0,  999.0,    0.1,   -0.2,  999.0,    0.0,    0.0,   -0.1,  999.0,  999.0,  999.0,   -0.0,  999.0,   -0.3,   -0.5,   -0.3,   -0.4,   -0.2,   -0.3,   -0.1,   -0.2,    0.1,    0.0,    0.1,    0.0,    0.0,   -0.0,    0.0,   -0.0,   -0.1,   -0.1,   -0.0,    0.0,   -0.0,   -0.0,    0.1,   -0.1,  999.0,    0.2,    0.1,   -0.0,   -0.1,   -0.1,   -0.4,    0.2,    0.2,    0.0,    0.3,    0.3,    0.2,    0.1,    0.4,   -0.2,    0.2,    0.2,   -0.1,    0.1,    0.1,    0.5,    0.4,    0.2,  999.0,    0.1,   -0.5,   -0.6,   -0.1,   -0.0,  999.0,  999.0,  999.0,  999.0,  999.0,  999.0,  999.0,  999.0,  999.0,  999.0,  999.0,  999.0,  999.0
2015/02/02 06:10,  999.0,  999.0,  999.0,   16.0,   17.2,   18.4,   18.5,   18.3,   16.3,   13.7,   12.8,   13.7,   14.7,   14.8,   16.2,   16.7,   17.6,  999.0,   20.8,  999.0,  999.0,  999.0,  999.0,  999.0,   -0.1,    0.1,    0.1,    0.0,   -0.0,   -0.0,    0.1,   -0.1,   -0.1,   -0.1,    0.2,    0.1,   -0.1,    0.3,    0.1,   -0.3,    0.1,  999.0,    0.6,    0.1,    0.1,   -0.7,    0.2,  999.0,    0.2,    0.0,    0.3,    0.0,   -0.1,   -0.7,   -0.4,   -0.3,    0.6,    0.1,   -0.4,  999.0,   -0.5,    1.1,   -0.1,    0.1,    0.6,   -0.1,  999.0,  999.0,  999.0,  999.0,  999.0,  999.0,  999.0,  999.0,  999.0,  999.0,  999.0,  999.0,  999.0,  999.0
2015/02/02 06:20,  999.0,  999.0,  999.0,   18.0,   18.3,   18.2,   17.7,   16.8,   16.3,   15.5,   13.7,   14.4,   14.4,   14.6,   16.0,  999.0,   18.1,   18.7,  999.0,  999.0,  999.0,  999.0,  999.0,   -0.1,    0.0,   -0.1,   -0.1,    0.1,    0.0,   -0.2,    0.0,   -0.0,    0.0,    0.1,    0.0,   -0.1,   -0.0,   -0.1,   -0.0,    0.0,   -0.3,  999.0,    0.0,   -0.3,   -0.2,    0.2,    0.2,    0.2,    0.1,    0.2,    0.0,   -0.2,   -0.0,    0.1,   -0.1,    0.1,    0.4,    0.3,    0.4,    0.3,   -0.1,   -0.4,   -0.2,    0.2,  999.0,    0.1,    0.2,  999.0,  999.0,  999.0,  999.0,  999.0,  999.0,  999.0,  999.0,  999.0,  999.0,  999.0,  999.0,  999.0
2015/02/02 06:30,  999.0,  999.0,   22.0,   24.2,   24.4,   24.3,   24.9,   25.1,   24.2,   24.2,   23.2,   22.8,   24.3,  999.0,  999.0,  999.0,  999.0,   16.6,  999.0,  999.0,  999.0,   -0.2,   -0.2,   -0.1,   -0.1,    0.1,   -0.1,   -0.1,   -0.0,    0.0,   -0.3,   -0.1,    0.0,    0.0,    0.0,   -0.2,    0.2,   -0.3,   -0.1,   -0.1,   -0.2,   -0.2,    0.3,   -0.1,    0.0,    0.0,    0.3,   -0.1,   -0.0,    0.1,    0.0,    0.1,   -0.0,    0.0,   -0.3,    0.3,   -0.2,    0.0,   -0.1,  999.0,   -0.2,   -0.0,   -0.1,    0.2,    0.0,    0.2,  999.0,  999.0,  999.0,  999.0,  999.0,  999.0,  999.0,  999.0,  999.0,  999.0,  999.0,  999.0,  999.0,  999.0
2015/02/02 06:40,  999.0,  999.0,  999.0,   19.5,   22.1,   23.2,   20.8,   21.3,   20.7,   19.1,   20.1,   21.6,   20.9,  999.0,  999.0,  999.0,   16.0,   16.7,    8.3,  999.0,    0.4,    0.2,    0.1,   -0.1,    0.0,    0.2,   -0.0,   -0.0,    0.0,   -0.2,    0.1,    0.0,    0.0,   -0.0,   -0.0,   -0.2,    0.2,   -0.4,    0.5,    0.3,   -0.5,   -0.1,    0.4,   -0.1,    0.1,    0.2,    0.7,   -0.2,    0.1,   -0.2,   -0.3,    0.2,   -0.2,   -0.6,   -0.5,   -0.3,    0.2,    0.2,   -0.3,  999.0,  999.0,  999.0,  999.0,    0.0,  999.0,  999.0,  999.0,  999.0,  999.0,  999.0,  999.0,  999.0,  999.0,  999.0,  999.0,  999.0,  999.0,  999.0,  999.0,  999.0
2015/02/02 06:50,  999.0,  999.0,  999.0,  999.0,   20.9,   20.8,   18.7,   17.1,   18.1,   18.6,   19.2,   21.3,   21.5,   21.0,   18.8,  999.0,   19.2,  999.0,   14.8,   17.8,  999.0,  999.0,  999.0,  999.0,  999.0,  999.0,    0.0,    0.1,    0.0,    0.1,   -0.2,    0.0,    0.0,  999.0,    0.1,  999.0,    0.0,    0.2,    0.0,   -0.3,  999.0,    0.1,   -0.2,  999.0,  999.0,    0.1,   -0.1,   -0.3,    0.3,  999.0,  999.0,    0.1,   -0.1,   -0.2,   -0.3,  999.0,  999.0,  999.0,  999.0,    0.2,    0.3,  999.0,  999.0,  999.0,  999.0,  999.0,  999.0,  999.0,  999.0,  999.0,  999.0,  999.0,  999.0,  999.0,  999.0,  999.0,  999.0,  999.0,  999.0,  999.0
2015/02/02 07:00,  999.0,  999.0,  999.0,  999.0,  999.0,  999.0,  999.0,  999.0,  999.0,   17.0,   19.1,   21.6,   22.6,   22.3,   20.7,   24.0,   19.6,  999.0,  999.0,  999.0,  999.0,  999.0,  999.0,  999.0,  999.0,   -0.0,    0.2,    0.2,    0.2,   -0.2,   -0.0,   -0.2,   -0.1,   -0.2,    0.3,    0.2,  999.0,    0.0,    0.2,    0.1,   -0.4,   -0.3,  999.0,   -0.2,   -0.0,  999.0,   -0.3,  999.0,  999.0,    0.1,    0.2,   -0.4,    0.3,    0.4,    0.1,   -0.0,    0.4,  999.0,  999.0,    0.1,  999.0,   -0.1,  999.0,  999.0,  999.0,  999.0,  999.0,  999.0,  999.0,  999.0,  999.0,  999.0,  999.0,  999.0,  999.0,  999.0,  999.0,  999.0,  999.0,  999.0
2015/02/02 07:10,  999.0,  999.0,  999.0,  999.0,  999.0,   20.7,  999.0,   12.8,   18.5,   18.6,   19.1,  999.0,   18.7,  999.0,  999.0,   12.9,   12.4,   13.2,   13.8,   14.8,   10.4,  999.0,    4.7,   -0.1,  999.0,    0.1,    0.2,   -0.1,   -0.1,   -0.2,   -0.1,   -0.1,    0.2,    0.1,    0.1,    0.2,  999.0,    0.2,    0.6,  999.0,  999.0,   -0.2,    0.1,  999.0,   -0.4,  999.0,  999.0,   -0.2,   -0.4,    0.2,  999.0,  999.0,  999.0,   -0.2,   -0.1,    0.3,  999.0,   -0.3,   -0.4,  999.0,  999.0,   -0.2,   -0.2,  999.0,  999.0,  999.0,  999.0,  999.0,  999.0,  999.0,  999.0,  999.0,  999.0,  999.0,  999.0,  999.0,  999.0,  999.0,  999.0,  999.0
2015/02/02 07:20,  999.0,  999.0,  999.0,    4.7,  999.0,  999.0,  999.0,   14.2,  999.0,   18.4,   17.7,   20.9,   22.6,  999.0,   23.7,  999.0,  999.0,  999.0,   20.3,  999.0,  999.0,   10.8,   10.2,  999.0,  999.0,   -0.2,   -0.2,   -0.3,   -0.3,    0.2,    0.1,    0.2,   -0.2,   -0.1,    0.1,    0.2,    0.2,    0.2,    0.4,    0.0,  999.0,   -0.1,    0.5,   -0.1,   -0.3,  999.0,   -0.4,   -0.1,  999.0,    0.1,   -0.2,   -0.3,   -0.1,   -0.1,  999.0,   -0.1,   -0.2,    0.1,   -0.1,  999.0,  999.0,    0.1,    0.0,  999.0,  999.0,  999.0,  999.0,  999.0,  999.0,  999.0,  999.0,  999.0,  999.0,  999.0,  999.0,  999.0,  999.0,  999.0,  999.0,  999.0
2015/02/02 07:30,  999.0,  999.0,  999.0,  999.0,  999.0,  999.0,  999.0,  999.0,  999.0,  999.0,  999.0,  999.0,  999.0,  999.0,  999.0,  999.0,   -1.1,   -1.9,   -1.2,   -1.3,   -1.3,   -0.8,   -1.0,   -0.1,    0.1,   -0.0,   -0.2,   -0.3,   -0.2,   -0.0,    0.0,    0.2,   -0.2,    0.1,    0.0,    0.2,   -0.1,    0.0,   -0.2,  999.0,   -0.6,   -0.2,    0.0,   -0.0,  999.0,    0.3,    0.2,   -0.2,   -0.0,    0.0,    0.1,   -0.2,   -0.2,   -0.1,    0.2,   -0.2,   -0.0,   -0.2,    0.2,  999.0,    0.5,    0.6,    0.3,  999.0,   -0.1,  999.0,  999.0,  999.0,  999.0,  999.0,  999.0,  999.0,  999.0,  999.0,  999.0,  999.0,  999.0,  999.0,  999.0,  999.0
2015/02/02 07:40,  999.0,    0.4,   -0.0,    0.2,    0.7,    0.6,    1.1,    1.0,    0.3,   -0.6,    0.7,    0.3,    0.6,   -1.6,   -0.4,   -0.2,    0.3,    0.1,   -0.2,   -1.4,   -2.4,   -1.9,   -2.8,   -1.4,   -0.8,   -0.5,   -0.6,    0.1,   -0.2,   -0.0,    0.2,   -0.4,    0.1,    0.1,    0.1,    0.1,   -0.0,   -0.4,    0.2,    0.3,   -0.2,   -0.4,   -0.2,  999.0,    0.0,  999.0,   -0.2,   -0.2,   -0.3,   -0.2,    0.2,    0.3,    0.0,   -0.4,   -0.6,   -0.1,    0.3,  999.0,   -0.3,  999.0,    0.1,   -0.0,  999.0,  999.0,   -0.1,  999.0,  999.0,  999.0,  999.0,  999.0,  999.0,  999.0,  999.0,  999.0,  999.0,  999.0,  999.0,  999.0,  999.0,  999.0
2015/02/02 07:50,  999.0,    0.0,   -0.4,   -0.0,    0.3,    0.2,    0.3,    0.7,    1.4,    2.2,    2.7,    3.5,    1.7,    0.6,    1.1,    1.9,    1.2,    1.5,    0.9,   -0.2,    0.6,   -0.8,    0.3,    0.6,    0.2,    0.1,    0.2,   -0.1,   -0.1,    0.0,    0.1,    0.1,    0.1,   -0.1,   -0.1,    0.1,   -0.2,   -0.3,   -0.4,   -0.4,   -0.2,   -0.1,   -0.1,  999.0,  999.0,  999.0,    0.1,   -0.1,    0.2,   -0.0,    0.2,   -0.1,   -0.2,   -0.1,   -0.2,   -0.6,  999.0,  999.0,    0.1,   -0.1,   -0.2,    0.0,    0.1,   -0.3,  999.0,    0.5,    0.3,  999.0,  999.0,  999.0,  999.0,  999.0,  999.0,  999.0,  999.0,  999.0,  999.0,  999.0,  999.0,  999.0
2015/02/02 08:00,  999.0,  999.0,    0.0,   -0.0,    0.0,    0.1,    0.2,    0.0,   -0.1,    0.6,    1.2,    0.4,    0.4,    0.5,    0.4,    0.4,    1.8,    2.6,    1.4,  999.0,  999.0,    1.2,    0.8,    0.4,    0.8,    0.1,   -0.0,   -0.1,   -0.0,    0.1,    0.1,   -0.0,    0.2,    0.0,   -0.0,   -0.2,   -0.3,    0.0,  999.0,   -0.0,   -0.3,    0.0,   -0.1,   -0.1,   -0.2,   -0.5,  999.0,   -0.3,   -0.2,   -0.3,   -0.2,   -0.0,   -0.3,    0.2,    0.1,    0.2,   -0.0,   -0.1,   -0.3,   -0.0,  999.0,  999.0,  999.0,  999.0,  999.0,  999.0,   -0.1,  999.0,  999.0,  999.0,  999.0,  999.0,  999.0,  999.0,  999.0,  999.0,  999.0,  999.0,  999.0,  999.0
2015/02/02 08:10,  999.0,  999.0,   -0.1,   -0.1,    0.0,    0.0,    0.1,    0.1,    0.3,    0.5,    0.7,    0.2,    0.2,    0.3,    0.1,    0.0,    5.0,    4.1,    4.6,    4.1,    3.5,    2.8,    0.9,   -0.3,   -0.2,   -0.1,    0.1,   -0.0,    0.1,    0.0,   -0.1,   -0.1,   -0.0,   -0.0,   -0.2,    0.2,   -0.1,    0.4,    0.6,  999.0,    0.2,    0.0,   -0.0,  999.0,   -0.0,   -0.2,  999.0,  999.0,   -0.2,   -0.3,   -0.1,   -0.0,    0.3,  999.0,   -0.0,    0.2,   -0.2,   -0.0,  999.0,   -0.2,  999.0,  999.0,   -0.1,  999.0,   -0.3,    0.0,    0.4,  999.0,  999.0,  999.0,  999.0,   -0.4,   -0.2,  999.0,  999.0,  999.0,  999.0,  999.0,  999.0,  999.0
2015/02/02 08:20,  999.0,  999.0,   -0.1,    0.0,   -0.0,   -0.2,   -0.2,   -0.2,   -0.1,    0.1,    0.3,    0.2,    0.1,   -0.1,    0.2,   -0.0,    1.0,    0.7,    1.2,    1.5,    0.3,    0.5,    0.2,   -0.2,   -0.0,    0.1,   -0.0,   -0.0,   -0.1,    0.1,   -0.0,   -0.1,   -0.2,   -0.1,   -0.1,    0.2,   -0.2,   -0.0,  999.0,    0.1,    0.1,   -0.3,   -0.3,  999.0,    0.1,   -0.0,   -0.0,    0.3,   -0.3,    0.2,    0.0,  999.0,   -0.1,    0.2,   -0.2,   -0.3,    0.4,  999.0,   -0.2,   -0.1,    0.1,   -0.3,    0.0,    0.1,    0.0,   -0.1,    0.1,   -0.2,  999.0,    0.3,  999.0,  999.0,  999.0,    0.1,  999.0,  999.0,  999.0,  999.0,  999.0,  999.0
2015/02/02 08:30,  999.0,  999.0,    0.0,    0.3,    0.0,  999.0,    0.1,    0.1,    0.1,    0.2,    0.3,    0.2,    0.0,    0.1,   -0.0,   -0.1,    0.1,    1.6,   -0.1,    2.1,    2.4,    0.3,    0.3,   -0.3,    0.1,   -0.1,   -0.1,   -0.1,   -0.2,   -0.1,   -0.0,    0.1,    0.0,    0.1,    0.2,   -0.1,    0.1,   -0.2,  999.0,    0.1,   -0.5,   -0.2,    0.3,    0.0,    0.1,    0.0,   -0.1,   -0.5,   -0.1,    0.0,    0.1,    0.0,    0.0,    0.4,    0.4,    0.2,    0.0,   -0.2,    0.4,    0.1,   -0.3,    0.2,   -0.1,    0.0,  999.0,    0.2,   -0.1,    0.3,  999.0,  999.0,  999.0,  999.0,  999.0,  999.0,  999.0,  999.0,  999.0,  999.0,  999.0,  999.0
2015/02/02 08:40,  999.0,   -0.1,    0.1,    0.1,   -0.1,   -0.1,    0.2,    0.2,    0.3,    0.4,    0.4,    0.4,    0.0,   -0.0,    0.0,    0.1,    0.0,   -0.0,    0.0,    0.1,    0.1,    0.9,    0.4,    0.0,   -0.1,    0.0,    0.0,    0.1,    0.2,   -0.1,    0.2,    0.1,    0.0,    0.2,    0.2,    0.2,   -0.0,   -0.3,   -0.1,   -0.2,   -0.3,    0.1,  999.0,   -0.2,    0.1,   -0.2,   -0.0,    0.1,   -0.1,   -0.0,    0.1,    0.2,    0.0,    0.1,   -0.1,   -0.2,    0.1,   -0.1,   -0.2,   -0.4,   -0.1,   -0.0,   -0.0,    0.1,    0.8,    0.1,    0.1,    0.1,   -0.3,    0.2,    0.0,  999.0,   -0.1,   -0.2,  999.0,  999.0,  999.0,  999.0,  999.0,  999.0
2015/02/02 08:50,  999.0,  999.0,   -0.0,   -0.2,   -0.0,   -0.1,   -0.1,    0.2,   -0.1,   -0.0,   -0.1,    0.1,    0.0,    0.0,   -0.2,   -0.2,   -0.1,    0.1,    0.2,    0.1,    0.2,    0.4,    0.4,   -0.1,    0.0,   -0.2,   -0.1,   -0.1,    0.2,   -0.1,    0.0,   -0.0,    0.1,    0.0,   -0.1,    0.2,    0.0,    0.1,   -0.2,    0.2,   -0.1,   -0.1,    0.1,    0.0,   -0.1,    0.0,    0.2,    0.2,   -0.1,   -0.1,   -0.1,   -0.2,    0.1,    0.1,   -0.2,   -0.1,    0.1,    0.0,    0.1,   -0.1,    0.1,   -0.2,  999.0,   -0.1,    0.1,   -0.0,   -0.0,   -0.1,  999.0,    0.0,    0.3,  999.0,    0.2,   -0.0,  999.0,  999.0,  999.0,  999.0,  999.0,  999.0
2015/02/02 09:00,  999.0,    0.0,   -0.1,   -0.0,  999.0,  999.0,  999.0,   -0.0,   -0.0,    0.0,    0.0,    0.0,   -0.1,    0.0,   -0.1,    0.1,   -0.0,    0.0,    0.0,    0.3,    0.3,    1.7,    1.7,   -0.1,   -0.3,   -0.1,   -0.1,   -0.2,    0.0,   -0.2,   -0.0,   -0.1,    0.1,    0.2,   -0.2,   -0.2,    0.0,  999.0,    0.1,    0.0,   -0.3,   -0.4,   -0.1,   -0.1,    0.0,   -0.2,    0.1,   -0.0,   -0.0,  999.0,    0.2,    0.0,   -0.1,   -0.1,   -0.1,    0.1,   -0.1,  999.0,   -0.3,    0.1,   -0.2,    0.1,   -0.1,   -0.4,  999.0,    0.3,    0.0,    0.1,    0.5,    0.0,    0.3,   -0.0,  999.0,   -0.2,   -0.1,  999.0,  999.0,  999.0,  999.0,  999.0
2015/02/02 09:10,  999.0,  999.0,    0.0,    0.2,    0.1,    0.1,    0.1,  999.0,   -0.0,    0.1,    0.0,   -0.0,   -0.1,    0.1,   -0.0,   -0.1,    0.1,   -0.1,   -0.1,   -0.2,   -0.1,    0.1,    0.0,   -0.2,   -0.0,    0.0,    0.0,    0.1,    0.1,   -0.1,    0.0,    0.0,   -0.0,   -0.0,   -0.1,   -0.2,   -0.1,    0.0,   -0.0,    0.2,   -0.2,    0.0,   -0.1,   -0.0,   -0.1,    0.2,   -0.0,   -0.1,   -0.1,   -0.2,   -0.1,    0.1,    0.2,    0.1,   -0.2,   -0.2,   -0.2,    0.1,   -0.1,   -0.3,    0.2,   -0.3,    0.1,   -0.1,   -0.1,  999.0,    0.1,   -0.1,  999.0,  999.0,  999.0,  999.0,  999.0,  999.0,  999.0,  999.0,  999.0,  999.0,  999.0,  999.0
2015/02/02 09:20,  999.0,  999.0,   -0.0,   -0.1,   -0.1,   -0.0,   -0.0,    0.0,   -0.0,   -0.1,    0.1,    0.0,   -0.1,   -0.1,   -0.1,    0.0,   -0.0,    0.1,    0.1,    0.0,    0.1,   -0.0,    0.0,    0.1,    0.1,   -0.0,    0.1,   -0.3,   -0.4,   -0.1,   -0.1,    0.0,    0.0,    0.0,    0.1,   -0.2,    0.0,    0.0,  999.0,   -0.2,    0.0,    0.3,    0.1,    0.1,    0.2,   -0.1,   -0.0,    0.1,   -0.1,   -0.3,   -0.1,    0.2,   -0.0,   -0.1,    0.1,   -0.1,   -0.1,    0.5,   -0.1,    0.1,   -0.3,   -0.2,   -0.2,   -0.5,    0.1,   -0.1,    0.1,    0.3,    0.2,  999.0,  999.0,  999.0,   -0.1,  999.0,  999.0,  999.0,  999.0,  999.0,  999.0,  999.0
2015/02/02 09:30,  999.0,  999.0,    0.1,    0.1,   -0.1,   -0.0,  999.0,    0.2,    0.0,    0.1,    0.1,    0.0,    0.0,    0.1,   -0.0,   -0.1,   -0.1,    0.1,    0.4,    0.1,    0.1,    0.1,    0.2,   -0.0,   -0.0,    0.1,    0.0,    0.1,    0.1,    0.0,    0.1,   -0.2,    0.0,    0.0,    0.1,   -0.0,    0.0,   -0.1,   -0.2,   -0.3,   -0.2,   -0.2,  999.0,    0.3,   -0.0,    0.0,   -0.2,   -0.1,   -0.1,    0.1,    0.1,    0.0,    0.1,   -0.1,    0.0,    0.2,    0.0,    0.1,    0.1,   -0.0,  999.0,   -0.2,  999.0,    0.0,   -0.0,   -0.0,  999.0,    0.1,  999.0,   -0.4,    0.0,  999.0,    0.2,    0.1,   -0.0,  999.0,  999.0,  999.0,  999.0,  999.0
2015/02/02 09:40,  999.0,   -0.1,  999.0,   -0.1,   -0.1,  999.0,   -0.0,   -0.1,    0.0,    0.2,    0.2,    0.0,    0.2,    0.2,    0.2,    0.2,    0.4,    0.3,    0.4,    0.4,    0.1,   -0.1,   -0.1,   -0.1,   -0.1,   -0.0,   -0.0,   -0.1,    0.0,    0.2,   -0.2,   -0.1,   -0.1,   -0.0,   -0.1,    0.0,   -0.0,   -0.1,   -0.2,   -0.1,   -0.2,    0.0,   -0.3,   -0.1,   -0.2,   -0.1,    0.1,   -0.1,   -0.1,    0.1,   -0.1,   -0.1,    0.1,    0.1,   -0.1,    0.0,    0.2,    0.1,   -0.1,    0.1,    0.0,    0.2,   -0.1,   -0.1,    0.0,  999.0,    0.0,  999.0,   -0.1,    0.1,  999.0,   -0.3,  999.0,  999.0,  999.0,  999.0,  999.0,  999.0,  999.0,  999.0
2015/02/02 09:50,  999.0,  999.0,    0.2,   -0.0,  999.0,   -0.1,    0.0,  999.0,    0.1,   -0.0,    0.3,    0.2,    0.0,    0.1,    0.0,    0.1,    0.2,    0.1,    0.3,   -0.0,    0.3,    0.4,    0.0,    0.0,   -0.1,   -0.0,    0.0,   -0.1,    0.2,    0.1,   -0.0,    0.1,   -0.0,    0.0,    0.1,   -0.0,    0.2,    0.1,    0.2,    0.2,   -0.0,    0.2,    0.0,    0.2,    0.2,    0.1,   -0.0,    0.0,    0.1,    0.2,    0.1,   -0.0,   -0.1,   -0.2,   -0.0,    0.0,    0.1,   -0.0,   -0.3,  999.0,    0.1,   -0.2,   -0.3,    0.1,   -0.3,  999.0,  999.0,   -0.1,  999.0,  999.0,  999.0,    0.3,   -0.2,  999.0,    0.1,  999.0,  999.0,  999.0,  999.0,  999.0
2015/02/02 10:00,  999.0,    0.1,    0.1,    0.3,    0.1,  999.0,  999.0,    0.0,    0.1,    0.0,    0.1,    0.1,    0.1,    0.2,    0.0,    0.1,    0.2,    0.4,    0.3,    0.6,    0.2,    0.5,    0.1,   -0.2,   -0.0,    0.1,    0.0,    0.0,   -0.1,    0.1,    0.1,    0.0,    0.0,   -0.1,    0.0,   -0.0,   -0.1,    0.1,   -0.1,    0.1,    0.0,    0.1,    0.2,    0.1,   -0.0,   -0.3,    0.1,    0.2,    0.1,    0.0,   -0.2,   -0.2,   -0.2,   -0.0,   -0.1,    0.1,   -0.5,    0.0,   -0.4,    0.3,    0.0,    0.1,   -0.2,   -0.1,    0.0,    0.5,   -0.0,   -0.2,   -0.2,   -0.3,  999.0,  999.0,  999.0,  999.0,   -0.0,  999.0,  999.0,  999.0,  999.0,  999.0
2015/02/02 10:10,  999.0,  999.0,    0.1,  999.0,  999.0,    0.1,    0.2,  999.0,    0.0,    0.0,    0.2,    0.2,    0.0,    0.1,    0.1,    0.2,    0.3,    0.4,    0.6,    0.3,   -0.0,    0.1,   -0.1,   -0.0,   -0.0,   -0.1,   -0.1,    0.1,   -0.1,   -0.0,   -0.1,   -0.1,   -0.1,   -0.2,    0.0,   -0.3,  999.0,    0.4,    0.2,   -0.1,   -0.3,   -0.2,    0.3,    0.2,   -0.0,    0.4,    0.2,    0.2,    0.0,    0.1,  999.0,   -0.3,    0.0,   -0.1,    0.1,   -0.3,   -0.3,    0.1,    0.0,    0.3,    0.3,    0.0,   -0.0,   -0.2,    0.0,  999.0,   -0.1,  999.0,  999.0,   -0.1,  999.0,    0.2,   -0.1,  999.0,  999.0,  999.0,  999.0,  999.0,  999.0,  999.0
2015/02/02 10:20,  999.0,    0.1,  999.0,    0.1,    0.0,   -0.0,   -0.1,  999.0,    0.0,    0.1,    0.2,    0.1,   -0.1,    0.0,    0.1,    0.3,    0.5,    0.4,    0.4,    0.3,    0.4,   -0.1,   -0.1,   -0.1,   -0.1,    0.0,    0.1,   -0.2,    0.0,   -0.0,   -0.2,    0.0,   -0.1,   -0.0,   -0.1,   -0.1,    0.0,   -0.6,   -0.1,   -0.0,    0.3,   -0.2,  999.0,   -0.3,    0.0,   -0.1,    0.1,    0.0,   -0.2,   -0.2,   -0.2,   -0.1,    0.0,    0.2,   -0.2,    0.1,   -0.4,    0.1,    0.0,   -0.0,   -0.1,    0.6,   -0.6,   -0.0,  999.0,   -0.1,  999.0,  999.0,  999.0,   -0.2,    0.0,  999.0,   -0.0,   -0.2,  999.0,  999.0,  999.0,  999.0,  999.0,  999.0
2015/02/02 10:30,  999.0,    0.0,    0.1,   -0.0,   -0.0,  999.0,    0.1,   -0.0,    0.1,    0.2,   -0.0,    0.0,    0.1,    0.2,    0.2,    0.1,    0.1,    0.1,    0.3,    0.4,    0.3,    0.0,   -0.2,    0.0,   -0.1,   -0.1,   -0.0,   -0.1,   -0.0,    0.0,   -0.1,   -0.1,   -0.2,   -0.1,    0.1,    0.1,    0.0,  999.0,   -0.3,   -0.1,   -0.2,    0.0,  999.0,   -0.4,   -0.3,   -0.1,   -0.0,    0.0,   -0.0,   -0.1,    0.0,    0.2,    0.0,   -0.0,   -0.2,   -0.1,    0.1,    0.3,    0.1,    0.1,   -0.0,  999.0,    0.2,   -0.1,    0.2,    0.2,  999.0,    0.2,  999.0,    0.1,  999.0,  999.0,    0.2,    0.2,   -0.1,  999.0,  999.0,  999.0,  999.0,  999.0
2015/02/02 10:40,  999.0,  999.0,   -0.0,   -0.2,   -0.0,    0.1,  999.0,  999.0,    0.2,    0.0,    0.1,    0.1,    0.0,    0.2,    0.2,    0.2,    0.2,    0.2,    0.2,    0.2,    0.6,    0.3,    0.3,    0.1,    0.0,   -0.0,   -0.0,   -0.1,    0.0,   -0.0,   -0.0,    0.0,    0.0,    0.0,   -0.0,   -0.3,   -0.3,   -0.1,    0.1,   -0.4,   -0.1,    0.1,   -0.1,   -0.2,    0.1,    0.1,   -0.2,   -0.1,    0.0,  999.0,    0.1,    0.1,   -0.1,   -0.0,    0.1,   -0.2,    0.0,    0.1,   -0.2,   -0.1,   -0.2,    0.0,  999.0,   -0.1,    0.0,   -0.1,    0.0,    0.0,   -0.1,  999.0,    0.2,    0.1,    0.5,    0.4,    0.2,  999.0,  999.0,  999.0,  999.0,  999.0
2015/02/02 10:50,  999.0,  999.0,   -0.1,  999.0,    0.1,  999.0,  999.0,   -0.1,    0.1,    0.1,    0.0,    0.1,    0.2,    0.0,   -0.1,    0.1,   -0.0,   -0.0,    0.1,    0.1,    0.2,    0.1,   -0.1,   -0.0,    0.0,   -0.1,    0.2,    0.0,    0.2,    0.1,   -0.0,    0.1,   -0.1,   -0.1,   -0.1,   -0.3,   -0.2,  999.0,    0.2,   -0.1,    0.0,   -0.4,    0.1,    0.1,   -0.2,   -0.1,   -0.0,   -0.0,    0.1,   -0.1,   -0.0,    0.2,    0.1,   -0.1,    0.0,    0.1,    0.0,    0.1,    0.1,    0.0,   -0.1,    0.0,    0.0,    0.2,    0.1,   -0.2,   -0.2,   -0.2,  999.0,    0.1,   -0.2,   -0.1,   -0.2,    0.1,  999.0,  999.0,  999.0,  999.0,  999.0,  999.0
2015/02/02 11:00,  999.0,  999.0,   -0.2,   -0.1,  999.0,  999.0,    0.1,  999.0,  999.0,  999.0,    0.1,    0.0,    0.1,    0.2,    0.1,    0.1,   -0.0,   -0.2,    0.1,    0.1,    0.1,   -0.0,    0.1,    0.1,    0.1,   -0.0,   -0.0,    0.1,    0.2,   -0.1,    0.1,    0.1,   -0.0,    0.0,    0.0,    0.0,   -0.0,    0.0,   -0.3,   -0.0,   -0.4,   -0.3,   -0.0,   -0.1,   -0.3,   -0.1,    0.3,   -0.1,   -0.1,   -0.1,    0.1,    0.2,   -0.0,   -0.1,   -0.0,    0.1,    0.0,   -0.0,   -0.2,   -0.0,    0.0,   -0.2,    0.3,   -0.1,   -0.2,   -0.2,    0.3,    0.4,   -0.1,  999.0,   -0.1,    0.1,    0.0,    0.2,    0.1,  999.0,  999.0,  999.0,  999.0,  999.0
2015/02/02 11:10,  999.0,  999.0,    0.0,    0.1,  999.0,  999.0,   -0.1,  999.0,    0.0,    0.0,   -0.0,    0.0,  999.0,  999.0,    0.0,    0.0,  999.0,  999.0,    0.1,  999.0,    0.0,   -0.1,    0.0,    0.0,   -0.2,   -0.2,  999.0,    0.0,   -0.1,   -0.1,    0.0,    0.0,    0.1,    0.1,    0.1,   -0.0,   -0.0,    0.0,    0.1,   -0.2,   -0.1,   -0.0,   -0.0,   -0.1,    0.1,   -0.1,   -0.0,    0.1,    0.0,    0.0,   -0.2,    0.1,    0.3,    0.1,   -0.0,   -0.1,   -0.1,   -0.1,    0.1,    0.3,   -0.1,   -0.4,   -0.0,   -0.2,    0.2,   -0.4,    0.0,   -0.3,   -0.1,   -0.1,    0.0,   -0.1,   -0.0,    0.1,   -0.2,  999.0,  999.0,  999.0,  999.0,  999.0
2015/02/02 11:20,  999.0,    0.0,    0.1,    0.1,  999.0,    0.1,    0.0,   -0.1,    0.0,  999.0,   -0.1,   -0.0,    0.1,    0.0,    0.1,    0.0,    0.1,    0.1,    0.1,    0.0,    0.1,    0.1,    0.1,    0.1,    0.1,    0.1,    0.0,    0.1,   -0.1,   -0.0,    0.1,    0.1,    0.1,   -0.0,    0.1,    0.2,   -0.0,   -0.1,   -0.1,   -0.1,    0.1,    0.1,   -0.0,   -0.1,   -0.0,    0.1,    0.1,   -0.2,    0.0,    0.0,    0.2,   -0.1,    0.0,    0.1,    0.0,   -0.1,   -0.1,    0.0,   -0.0,    0.3,    0.2,    0.1,    0.1,   -0.1,    0.1,    0.0,   -0.1,    0.1,    0.0,   -0.2,   -0.1,    0.2,    0.2,    0.0,   -0.1,  999.0,  999.0,  999.0,  999.0,  999.0
2015/02/02 11:30,  999.0,  999.0,    0.0,   -0.2,    0.0,    0.0,   -0.1,  999.0,  999.0,    0.0,    0.1,   -0.1,    0.0,    0.2,  999.0,   -0.0,    0.0,    0.1,  999.0,   -0.0,   -0.1,   -0.2,   -0.1,   -0.1,   -0.1,    0.1,    0.0,    0.0,    0.0,    0.1,   -0.0,   -0.1,    0.0,   -0.1,   -0.0,   -0.0,   -0.1,   -0.1,   -0.0,    0.0,   -0.2,    0.0,   -0.1,   -0.2,    0.1,    0.1,   -0.0,    0.2,   -0.0,   -0.1,    0.1,    0.0,    0.0,   -0.2,    0.1,    0.0,    0.2,   -0.1,    0.1,    0.3,    0.1,   -0.0,   -0.2,    0.1,    0.1,    0.2,    0.1,   -0.2,   -0.0,    0.3,  999.0,  999.0,    0.2,    0.4,    0.2,  999.0,  999.0,  999.0,  999.0,  999.0
2015/02/02 11:40,  999.0,   -0.0,    0.1,    0.1,    0.2,  999.0,    0.1,    0.2,  999.0,   -0.1,   -0.0,  999.0,    0.0,    0.0,    0.1,    0.0,  999.0,  999.0,   -0.0,    0.3,   -0.0,    0.4,    0.1,    0.1,    0.1,   -0.0,   -0.2,    0.1,    0.1,    0.1,    0.2,    0.1,    0.1,    0.1,    0.0,    0.0,    0.1,    0.1,    0.1,    0.1,   -0.1,   -0.1,   -0.2,   -0.2,   -0.1,    0.1,    0.3,    0.0,   -0.1,   -0.2,    0.0,    0.1,    0.1,    0.2,   -0.1,    0.0,   -0.2,   -0.0,    0.1,    0.2,   -0.0,   -0.2,   -0.1,    0.1,    0.0,   -0.0,   -0.1,    0.1,   -0.3,   -0.0,  999.0,  999.0,    0.3,   -0.1,   -0.1,  999.0,  999.0,  999.0,  999.0,  999.0
2015/02/02 11:50,  999.0,  999.0,    0.0,   -0.0,   -0.0,  999.0,  999.0,  999.0,  999.0,   -0.0,    0.1,    0.1,    0.1,    0.1,  999.0,   -0.1,    0.1,    0.2,    0.2,   -0.0,   -0.2,    0.0,   -0.2,    0.1,    0.1,    0.0,   -0.1,    0.0,    0.1,    0.0,   -0.2,   -0.1,    0.0,    0.0,   -0.0,    0.1,    0.1,   -0.1,   -0.1,    0.1,    0.1,    0.1,    0.0,   -0.1,   -0.2,    0.1,    0.3,    0.0,   -0.0,   -0.1,    0.1,    0.2,   -0.1,    0.1,   -0.1,   -0.0,   -0.1,   -0.1,   -0.1,    0.1,   -0.3,   -0.1,    0.2,    0.0,    0.1,    0.1,    0.2,    0.1,    0.2,    0.2,  999.0,  999.0,    0.2,    0.1,  999.0,  999.0,  999.0,  999.0,  999.0,  999.0
2015/02/02 12:00,  999.0,    0.1,    0.0,    0.1,    0.0,  999.0,   -0.1,    0.1,  999.0,   -0.0,   -0.1,    0.0,    0.1,    0.0,    0.1,    0.2,    0.1,    0.1,    0.1,    0.0,    0.1,    0.0,   -0.0,   -0.1,    0.1,   -0.0,    0.0,   -0.1,   -0.0,    0.1,    0.1,    0.0,   -0.1,    0.1,   -0.1,   -0.1,   -0.1,   -0.0,    0.0,   -0.2,    0.2,    0.1,   -0.0,    0.1,   -0.1,    0.1,   -0.1,   -0.1,    0.0,   -0.1,   -0.0,    0.1,   -0.0,    0.0,   -0.1,    0.0,    0.3,   -0.0,    0.1,    0.1,    0.0,   -0.0,    0.0,    0.1,    0.1,    0.0,    0.2,   -0.0,    0.0,   -0.0,   -0.0,    0.1,    0.2,  999.0,  999.0,  999.0,  999.0,  999.0,  999.0,  999.0
2015/02/02 12:10,  999.0,  999.0,   -0.1,    0.0,   -0.0,   -0.1,    0.0,   -0.0,    0.0,    0.2,    0.3,    0.1,   -0.0,   -0.2,    0.2,    0.3,    0.1,    0.1,    0.1,   -0.0,   -0.1,   -0.1,    0.1,   -0.0,   -0.1,    0.1,    0.2,    0.1,   -0.1,   -0.0,    0.0,   -0.1,   -0.0,   -0.1,    0.0,   -0.1,    0.1,    0.0,    0.1,    0.1,    0.1,   -0.1,   -0.1,   -0.1,   -0.0,    0.3,    0.1,    0.1,    0.0,   -0.1,   -0.1,    0.0,    0.0,    0.0,   -0.1,   -0.1,    0.0,   -0.1,   -0.3,    0.0,   -0.0,   -0.2,   -0.2,    0.1,   -0.0,    0.2,    0.1,    0.2,   -0.0,   -0.1,    0.1,  999.0,   -0.1,  999.0,  999.0,  999.0,  999.0,  999.0,  999.0,  999.0
2015/02/02 12:20,  999.0,  999.0,   -0.1,   -0.1,   -0.2,    0.0,  999.0,  999.0,  999.0,   -0.0,    0.1,    0.0,    0.3,    0.2,    0.4,    0.1,    0.1,    0.2,    0.0,    0.1,   -0.2,    0.1,   -0.1,    0.1,   -0.1,   -0.2,   -0.2,   -0.0,    0.1,   -0.1,   -0.0,    0.1,    0.1,   -0.1,    0.2,    0.1,   -0.0,    0.1,    0.0,   -0.0,    0.1,   -0.2,    0.0,    0.1,    0.2,   -0.0,    0.0,    0.1,   -0.1,   -0.3,   -0.2,    0.1,   -0.2,    0.0,   -0.3,    0.0,    0.1,   -0.0,    0.2,    0.3,   -0.1,   -0.1,    0.2,    0.1,    0.2,   -0.0,    0.1,   -0.0,    0.1,   -0.1,  999.0,  999.0,   -0.1,    0.1,  999.0,  999.0,  999.0,  999.0,  999.0,  999.0
2015/02/02 12:30,  999.0,  999.0,   -0.0,    0.0,   -0.0,    0.1,  999.0,  999.0,    0.0,    0.2,    0.0,   -0.0,    0.1,    0.2,    0.2,    0.1,    0.2,    0.2,    0.2,    0.2,    0.2,    0.3,   -0.1,    0.2,   -0.0,   -0.0,   -0.0,    0.0,    0.2,   -0.0,    0.0,   -0.0,    0.0,   -0.2,   -0.1,   -0.0,   -0.0,    0.1,    0.2,    0.1,   -0.0,   -0.1,    0.2,   -0.0,    0.2,   -0.0,   -0.1,    0.2,    0.1,   -0.0,    0.0,   -0.2,   -0.1,   -0.2,    0.0,    0.1,   -0.1,    0.1,   -0.2,   -0.1,    0.2,    0.1,   -0.4,    0.2,    0.2,    0.1,   -0.2,    0.1,    0.2,   -0.2,    0.0,    0.2,    0.1,   -0.1,  999.0,  999.0,  999.0,  999.0,  999.0,  999.0
2015/02/02 12:40,  999.0,  999.0,  999.0,  999.0,  999.0,  999.0,  999.0,  999.0,    0.2,    0.1,    0.0,    0.1,    0.1,    0.0,    0.0,    0.1,    0.0,   -0.1,    0.1,    0.2,    0.2,    0.7,    0.4,   -0.0,   -0.3,   -0.1,    0.1,    0.0,   -0.1,   -0.1,   -0.0,   -0.0,   -0.2,   -0.1,    0.1,    0.0,    0.0,   -0.1,   -0.0,   -0.0,    0.1,    0.1,   -0.0,   -0.0,    0.0,    0.0,   -0.2,   -0.1,    0.1,    0.0,    0.0,    0.1,    0.1,    0.1,   -0.1,    0.1,   -0.1,   -0.1,   -0.2,   -0.5,    0.0,   -0.5,  999.0,   -0.1,    0.0,   -0.5,    0.1,   -0.2,   -0.2,    0.2,  999.0,    0.2,    0.1,  999.0,   -0.5,  999.0,  999.0,  999.0,  999.0,  999.0
2015/02/02 12:50,  999.0,  999.0,    0.2,    0.0,  999.0,  999.0,  999.0,  999.0,    0.1,    0.1,   -0.0,    0.0,   -0.1,   -0.1,    0.2,    0.0,   -0.1,   -0.1,   -0.1,    0.0,    0.2,    0.3,   -0.4,    0.3,   -0.1,    0.0,   -0.1,    0.1,    0.1,   -0.1,   -0.0,   -0.0,    0.0,   -0.0,    0.0,   -0.0,   -0.2,    0.3,    0.1,   -0.0,   -0.1,   -0.1,   -0.1,   -0.0,   -0.1,   -0.1,    0.2,    0.2,    0.1,    0.1,   -0.1,   -0.1,   -0.1,    0.0,    0.1,   -0.3,   -0.0,   -0.0,   -0.1,   -0.1,    0.1,   -0.3,  999.0,   -0.2,    0.3,    0.0,   -0.2,   -0.6,    0.3,    0.1,    0.4,   -0.1,    0.1,   -0.2,  999.0,  999.0,  999.0,  999.0,  999.0,  999.0
2015/02/02 13:00,  999.0,  999.0,    0.1,    0.1,    0.1,  999.0,  999.0,    0.0,   -0.0,    0.1,    0.0,    0.1,    0.2,    0.1,    0.2,    0.1,    0.1,    0.0,    0.0,    0.1,    0.3,    0.8,    1.2,    0.7,    0.1,   -0.0,   -0.1,   -0.0,    0.0,    0.1,    0.0,    0.0,    0.0,    0.1,   -0.2,    0.0,   -0.1,    0.1,    0.1,    0.1,   -0.1,    0.0,    0.0,    0.0,    0.0,    0.0,    0.0,    0.0,    0.1,    0.1,   -0.1,   -0.3,   -0.1,   -0.2,   -0.0,   -0.2,   -0.1,   -0.0,    0.0,   -0.1,    0.3,   -0.2,   -0.3,   -0.6,   -0.3,   -0.0,    0.3,  999.0,    0.1,    0.1,  999.0,  999.0,    0.2,    0.1,  999.0,  999.0,  999.0,  999.0,  999.0,  999.0
2015/02/02 13:10,  999.0,  999.0,  999.0,   -0.2,    0.1,  999.0,   -0.1,   -0.1,    0.0,   -0.1,   -0.0,    0.0,   -0.0,    0.0,    0.0,    0.1,    0.1,    0.1,    0.1,    0.3,    0.4,    0.4,    0.1,   -0.1,    0.1,   -0.1,    0.1,    0.0,   -0.0,    0.1,    0.2,   -0.1,    0.2,    0.0,    0.0,   -0.0,   -0.0,    0.1,   -0.4,   -0.2,   -0.3,   -0.3,  999.0,    0.2,    0.0,   -0.2,   -0.3,   -0.2,    0.1,   -0.3,    0.3,    0.1,    0.0,   -0.1,   -0.1,   -0.0,    0.0,    0.1,   -0.1,   -0.1,   -0.3,    0.2,   -0.2,   -0.2,  999.0,   -0.2,    0.1,    0.1,  999.0,  999.0,   -0.1,    0.0,    0.1,   -0.1,  999.0,  999.0,  999.0,  999.0,  999.0,  999.0
2015/02/02 13:20,  999.0,  999.0,   -0.1,    0.1,  999.0,   -0.1,  999.0,   -0.1,   -0.1,    0.0,    0.1,    0.1,   -0.1,   -0.0,   -0.1,   -0.0,    0.0,    0.1,    0.1,    0.4,    0.3,  999.0,    1.1,    0.1,   -0.0,    0.1,    0.1,    0.0,   -0.1,    0.2,    0.2,   -0.1,    0.1,    0.1,    0.2,    0.0,  999.0,    0.1,    0.1,    0.3,   -0.1,   -0.0,    0.3,    0.0,   -0.1,   -0.1,   -0.1,    0.2,   -0.0,    0.3,   -0.1,   -0.2,    0.3,    0.3,   -0.2,    0.0,  999.0,    0.1,   -0.1,  999.0,   -0.3,  999.0,   -0.2,    0.0,   -0.3,    0.6,   -0.3,    0.2,  999.0,   -0.2,  999.0,   -0.0,   -0.1,   -0.2,  999.0,  999.0,  999.0,  999.0,  999.0,  999.0
2015/02/02 13:30,  999.0,  999.0,    0.1,    0.1,   -0.1,   -0.0,   -0.1,  999.0,  999.0,   -0.1,   -0.1,   -0.0,    0.1,   -0.0,    0.1,    0.3,    0.3,    0.3,    0.3,    0.4,    0.9,    0.7,    0.0,   -0.2,    0.1,   -0.0,   -0.0,    0.1,   -0.1,    0.0,   -0.1,   -0.0,    0.0,    0.4,    0.1,   -0.1,    0.2,    0.1,    0.0,    0.0,   -0.3,   -0.4,   -0.2,    0.1,   -0.1,   -0.2,   -0.3,    0.0,   -0.2,    0.1,    0.2,    0.2,   -0.0,   -0.2,   -0.2,   -0.2,    0.1,    0.0,   -0.0,   -0.0,    0.1,    0.2,   -0.0,    0.1,    0.2,    0.1,    0.1,    0.1,   -0.5,   -0.1,   -0.3,   -0.2,  999.0,    0.2,  999.0,  999.0,  999.0,  999.0,  999.0,  999.0
2015/02/02 13:40,  999.0,  999.0,   -0.1,  999.0,   -0.0,  999.0,    0.0,    0.1,   -0.1,    0.0,   -0.1,    0.0,   -0.1,   -0.0,   -0.1,   -0.1,   -0.1,    0.1,    0.2,    0.2,    0.7,    0.4,   -0.2,   -0.1,    0.1,   -0.0,    0.0,   -0.1,   -0.0,   -0.0,   -0.1,   -0.1,    0.0,    0.4,    0.0,    0.1,   -0.3,   -0.3,    0.1,    0.2,   -0.1,    0.1,   -0.1,   -0.1,   -0.2,   -0.2,    0.2,    0.0,    0.1,   -0.1,   -0.0,   -0.1,   -0.1,    0.1,   -0.2,   -0.1,   -0.1,    0.0,   -0.1,    0.0,   -0.1,   -0.1,   -0.1,    0.0,   -0.0,    0.0,    0.0,   -0.3,   -0.3,   -0.1,    0.0,  999.0,    0.2,  999.0,    0.2,  999.0,  999.0,  999.0,  999.0,  999.0
2015/02/02 13:50,  999.0,  999.0,   -0.0,    0.0,   -0.1,  999.0,    0.1,    0.1,    0.1,  999.0,   -0.1,   -0.0,   -0.3,   -0.1,    0.2,    0.1,    0.1,   -0.0,   -0.0,    0.3,    0.6,    0.6,    0.4,    0.2,   -0.0,    0.2,    0.0,    0.1,    0.1,   -0.1,   -0.0,    0.1,    0.0,    0.2,   -0.1,   -0.1,    0.2,   -0.1,   -0.0,   -0.0,   -0.0,    0.0,    0.0,    0.1,    0.0,    0.1,   -0.1,   -0.1,   -0.6,   -0.2,   -0.0,   -0.1,   -0.0,    0.1,   -0.1,   -0.1,    0.1,   -0.0,   -0.0,   -0.0,   -0.0,    0.2,    0.2,    0.0,    0.1,    0.1,   -0.1,    0.2,   -0.2,    0.3,   -0.4,    0.1,  999.0,   -0.7,  999.0,  999.0,  999.0,  999.0,  999.0,  999.0
2015/02/02 14:00,  999.0,   -0.2,   -0.0,   -0.2,    0.0,    0.1,  999.0,    0.1,    0.0,    0.0,    0.1,    0.1,   -0.0,    0.1,    0.3,    0.3,    0.2,    0.1,    0.2,    0.2,    0.5,    1.3,    1.5,    0.7,   -0.1,    0.0,    0.0,    0.1,   -0.0,   -0.2,   -0.1,    0.2,    0.1,   -0.1,    0.0,   -0.2,   -0.0,    0.2,    0.1,   -0.1,   -0.1,   -0.0,   -0.5,   -0.1,   -0.0,   -0.2,   -0.0,    0.0,    0.1,    0.0,   -0.2,   -0.1,   -0.0,   -0.2,    0.1,   -0.1,    0.2,   -0.2,   -0.2,    0.2,   -0.2,    0.0,   -0.0,   -0.3,   -0.0,   -0.1,    0.1,   -0.0,   -0.0,    0.1,    0.0,  999.0,    0.3,  999.0,    0.2,  999.0,  999.0,  999.0,  999.0,  999.0
2015/02/02 14:10,  999.0,  999.0,    0.1,   -0.0,   -0.0,  999.0,  999.0,    0.0,  999.0,    0.1,    0.2,    0.1,    0.3,    0.2,    0.1,    0.2,    0.1,    0.1,    0.2,    0.2,    0.3,    0.6,    0.4,    0.1,   -0.1,   -0.0,   -0.0,   -0.1,   -0.0,    0.1,    0.0,   -0.2,   -0.2,    0.1,    0.0,    0.1,    0.1,   -0.2,    0.0,   -0.1,   -0.0,   -0.1,   -0.1,    0.1,    0.2,   -0.1,    0.1,   -0.0,   -0.1,    0.1,    0.1,   -0.1,   -0.2,   -0.1,   -0.2,   -0.0,   -0.1,    0.1,   -0.1,    0.0,   -0.0,   -0.0,   -0.1,    0.3,    0.2,    0.0,    0.1,   -0.2,   -0.4,   -0.2,   -0.0,   -0.2,   -0.3,    0.1,    0.0,  999.0,  999.0,  999.0,  999.0,  999.0
2015/02/02 14:20,  999.0,  999.0,    0.0,    0.0,  999.0,  999.0,  999.0,  999.0,   -0.1,    0.1,    0.2,    0.2,    0.2,    0.1,    0.2,    0.1,    0.0,    0.1,   -0.0,    0.1,   -0.0,    1.0,    0.3,   -0.3,   -0.1,   -0.0,    0.1,    0.0,    0.0,   -0.0,   -0.1,   -0.1,   -0.2,   -0.1,   -0.0,    0.3,   -0.1,    0.2,    0.1,    0.1,    0.0,    0.1,    0.1,   -0.0,   -0.0,   -0.1,   -0.1,   -0.1,    0.1,   -0.2,   -0.1,    0.1,   -0.1,    0.1,    0.1,   -0.0,   -0.2,    0.1,   -0.0,    0.0,    0.2,   -0.1,    0.0,   -0.3,   -0.1,    0.0,   -0.1,    0.1,    0.1,    0.1,  999.0,   -0.1,  999.0,  999.0,  999.0,  999.0,  999.0,  999.0,  999.0,  999.0
2015/02/02 14:30,  999.0,   -0.1,    0.0,    0.1,  999.0,  999.0,  999.0,    0.1,    0.2,    0.0,    0.1,   -0.0,    0.1,    0.0,    0.0,    0.0,    0.2,    0.2,    0.2,    0.0,    0.2,    1.2,    0.5,    0.0,   -0.0,    0.0,   -0.1,   -0.0,    0.0,   -0.0,    0.1,   -0.0,   -0.2,    0.0,   -0.1,   -0.1,    0.0,   -0.2,    0.2,   -0.3,    0.0,   -0.3,    0.1,   -0.1,    0.1,    0.1,   -0.0,   -0.0,    0.0,    0.1,   -0.1,   -0.0,    0.0,   -0.1,   -0.1,   -0.0,   -0.2,   -0.4,   -0.1,   -0.1,   -0.2,    0.0,    0.2,    0.2,    0.1,    0.2,   -0.2,   -0.1,   -0.0,   -0.3,  999.0,  999.0,    0.1,  999.0,  999.0,  999.0,  999.0,  999.0,  999.0,  999.0
2015/02/02 14:40,  999.0,    0.1,   -0.2,   -0.0,    0.1,  999.0,  999.0,   -0.1,   -0.0,    0.0,    0.1,    0.0,    0.0,    0.1,    0.2,    0.1,    0.1,    0.3,    0.2,    0.5,    0.6,    1.6,    1.2,   -0.0,    0.1,   -0.0,    0.1,    0.2,    0.1,   -0.1,    0.2,    0.1,   -0.1,   -0.1,    0.1,   -0.3,    0.1,   -0.2,   -0.1,   -0.2,   -0.3,   -0.2,   -0.2,   -0.3,   -0.1,   -0.3,   -0.1,   -0.1,   -0.1,    0.1,    0.2,    0.3,   -0.1,   -0.1,    0.1,    0.1,    0.1,    0.1,   -0.3,   -0.2,   -0.3,    0.1,   -0.0,   -0.3,   -0.1,    0.0,   -0.1,   -0.1,   -0.3,   -0.2,  999.0,  999.0,    0.2,  999.0,    0.1,  999.0,  999.0,  999.0,  999.0,  999.0
2015/02/02 14:50,  999.0,  999.0,    0.3,    0.1,    0.0,  999.0,  999.0,  999.0,    0.1,    0.1,    0.1,   -0.1,   -0.1,    0.2,    0.2,    0.1,    0.1,    0.1,    0.2,    0.5,    0.6,    1.0,    0.3,   -0.0,   -0.0,   -0.1,    0.1,   -0.1,   -0.0,    0.0,   -0.0,    0.1,   -0.0,   -0.1,    0.3,    0.2,  999.0,   -0.2,   -0.0,   -0.0,   -0.1,   -0.0,    0.1,   -0.2,   -0.0,   -0.0,   -0.2,   -0.2,    0.1,   -0.1,   -0.2,   -0.2,   -0.1,    0.1,   -0.1,   -0.1,   -0.1,   -0.2,   -0.1,   -0.0,   -0.1,   -0.1,   -0.2,   -0.1,   -0.0,   -0.0,   -0.1,    0.1,   -0.1,  999.0,  999.0,    0.6,   -0.1,   -0.1,  999.0,  999.0,  999.0,  999.0,  999.0,  999.0
2015/02/02 15:00,  999.0,    0.1,   -0.1,    0.1,    0.1,  999.0,  999.0,    0.0,    0.0,    0.0,   -0.1,   -0.1,    0.0,   -0.0,   -0.0,    0.1,    0.2,    0.5,    0.5,    0.6,    0.5,    0.3,    0.0,    0.1,    0.0,    0.0,   -0.1,    0.0,    0.1,    0.0,   -0.1,   -0.1,   -0.1,   -0.1,    0.1,    0.0,   -0.1,    0.2,    0.0,   -0.2,   -0.0,   -0.2,   -0.2,   -0.1,   -0.1,    0.0,   -0.0,   -0.1,   -0.1,    0.1,    0.1,    0.1,   -0.0,    0.1,    0.1,   -0.1,    0.1,   -0.1,    0.1,    0.1,    0.1,   -0.2,   -0.1,   -0.2,   -0.0,    0.2,    0.1,    0.2,    0.1,    0.0,    0.1,   -0.0,   -0.1,   -0.3,  999.0,  999.0,  999.0,  999.0,  999.0,  999.0
2015/02/02 15:10,  999.0,   -0.1,    0.0,    0.0,  999.0,  999.0,  999.0,   -0.0,   -0.1,   -0.3,   -0.2,   -0.0,   -0.0,    0.1,    0.1,    0.3,    0.6,    0.9,    1.2,    1.1,    0.9,   -0.1,   -0.2,    0.1,   -0.0,    0.1,   -0.1,   -0.0,   -0.1,   -0.1,   -0.0,    0.0,    0.1,    0.1,    0.0,    0.0,    0.0,   -0.0,   -0.3,    0.1,   -0.1,   -0.1,    0.1,   -0.1,   -0.1,   -0.2,    0.0,    0.2,    0.2,   -0.0,   -0.0,   -0.0,   -0.1,    0.2,    0.0,   -0.1,    0.0,   -0.0,    0.1,    0.2,   -0.2,    0.1,    0.0,   -0.2,   -0.0,    0.2,    0.1,    0.2,    0.1,   -0.2,   -0.0,    0.2,    0.2,    0.1,    0.3,  999.0,  999.0,  999.0,  999.0,  999.0
2015/02/02 15:20,  999.0,  999.0,    0.1,    0.1,    0.0,  999.0,  999.0,  999.0,    0.0,    0.0,   -0.1,    0.2,    0.2,    0.3,    0.2,    0.5,    0.6,    0.3,    0.8,    1.3,    0.3,    0.1,    0.2,    0.1,    0.1,    0.1,    0.1,   -0.1,   -0.1,    0.1,   -0.1,   -0.0,    0.1,    0.2,    0.0,   -0.1,    0.0,   -0.2,   -0.1,   -0.2,    0.0,   -0.0,   -0.1,    0.1,   -0.0,    0.1,    0.0,   -0.1,    0.0,   -0.3,   -0.0,   -0.1,    0.1,    0.3,    0.0,    0.1,   -0.0,   -0.1,    0.1,    0.0,    0.0,   -0.1,    0.0,    0.1,    0.0,    0.0,    0.1,    0.1,  999.0,  999.0,    0.3,  999.0,  999.0,   -0.3,  999.0,  999.0,  999.0,  999.0,  999.0,  999.0
2015/02/02 15:30,  999.0,  999.0,   -0.0,    0.2,    0.1,  999.0,  999.0,  999.0,    0.1,    0.2,    0.1,    0.1,    0.1,    0.0,    0.0,    0.2,    0.2,    0.0,    0.1,   -0.1,   -0.2,   -0.2,    0.0,    0.1,    0.0,   -0.0,    0.1,   -0.0,   -0.2,   -0.0,   -0.1,   -0.0,   -0.0,   -0.1,   -0.2,   -0.0,    0.2,  999.0,   -0.3,   -0.1,   -0.0,    0.1,   -0.0,   -0.0,    0.0,   -0.0,    0.1,   -0.2,    0.1,   -0.1,   -0.1,   -0.1,   -0.1,    0.1,   -0.0,   -0.0,    0.0,   -0.2,    0.2,   -0.3,    0.1,   -0.1,    0.1,   -0.3,    0.1,    0.2,  999.0,    0.1,   -0.0,    0.0,   -0.5,  999.0,  999.0,   -0.2,  999.0,  999.0,  999.0,  999.0,  999.0,  999.0
2015/02/02 15:40,  999.0,  999.0,   -0.1,    0.1,    0.1,    0.2,  999.0,   -0.0,    0.1,   -0.0,    0.3,    0.3,    0.2,    0.1,    0.0,   -0.1,   -0.2,   -0.1,   -0.2,   -0.0,    0.0,    0.1,    0.0,   -0.0,    0.0,   -0.0,   -0.1,    0.0,    0.0,    0.1,   -0.1,    0.1,   -0.3,    0.1,   -0.1,    0.1,   -0.1,    0.1,    0.1,    0.0,    0.1,   -0.2,   -0.1,   -0.0,    0.1,   -0.0,    0.1,   -0.1,    0.0,    0.2,   -0.3,   -0.2,    0.0,    0.0,    0.0,   -0.2,   -0.1,   -0.0,   -0.0,    0.6,    0.1,   -0.2,   -0.2,    0.1,   -0.0,   -0.3,    0.1,    0.2,    0.2,    0.0,  999.0,   -0.1,  999.0,  999.0,  999.0,  999.0,  999.0,  999.0,  999.0,  999.0
2015/02/02 15:50,  999.0,  999.0,   -0.0,   -0.0,   -0.1,  999.0,  999.0,   -0.2,   -0.0,    0.1,    0.2,    0.0,    0.3,    0.1,   -0.1,   -0.1,   -0.3,   -0.1,   -0.1,    0.1,   -0.1,    0.0,   -0.0,   -0.1,   -0.1,   -0.1,    0.1,   -0.1,   -0.0,   -0.1,    0.1,   -0.1,    0.0,    0.3,    0.2,    0.1,   -0.1,   -0.1,    0.1,    0.0,   -0.1,   -0.0,   -0.1,    0.2,    0.0,   -0.1,    0.0,   -0.1,   -0.0,   -0.1,    0.0,   -0.0,   -0.1,   -0.0,    0.0,    0.1,   -0.1,   -0.2,   -0.1,    0.0,   -0.0,   -0.1,   -0.2,   -0.1,    0.1,    0.1,    0.2,    0.0,   -0.3,   -0.2,   -0.0,  999.0,  999.0,  999.0,    0.4,  999.0,  999.0,  999.0,  999.0,  999.0
2015/02/02 16:00,  999.0,  999.0,    0.0,   -0.1,    0.2,  999.0,  999.0,  999.0,    0.2,    0.2,    0.0,    0.2,    0.2,    0.1,   -0.0,    0.1,    0.1,    0.1,   -0.1,    0.4,    0.1,   -0.1,    0.1,   -0.0,    0.0,   -0.0,   -0.0,   -0.1,    0.1,   -0.1,   -0.2,   -0.1,    0.0,   -0.1,    0.1,    0.1,    0.1,    0.0,   -0.1,    0.1,   -0.1,    0.1,   -0.1,   -0.0,   -0.0,    0.2,   -0.1,   -0.1,    0.0,    0.3,    0.2,    0.2,   -0.1,    0.1,    0.1,   -0.0,    0.1,   -0.2,   -0.2,   -0.1,   -0.3,   -0.0,    0.0,   -0.2,   -0.0,    0.1,    0.1,   -0.2,    0.2,    0.0,    0.2,    0.1,   -0.1,    0.1,  999.0,  999.0,  999.0,  999.0,  999.0,  999.0
2015/02/02 16:10,  999.0,  999.0,   -0.1,    0.2,   -0.0,    0.1,  999.0,  999.0,    0.3,    0.0,    0.2,    0.0,    0.1,    0.1,   -0.1,    0.1,   -0.0,   -0.1,   -0.0,   -0.0,    0.0,   -0.0,    0.0,    0.0,    0.1,   -0.0,    0.0,   -0.1,   -0.0,    0.0,   -0.0,   -0.0,   -0.1,   -0.1,   -0.0,   -0.1,    0.1,   -0.2,   -0.1,   -0.0,   -0.2,   -0.3,   -0.2,    0.0,   -0.0,   -0.2,   -0.2,   -0.2,   -0.2,    0.1,   -0.0,    0.0,   -0.0,    0.1,    0.0,   -0.0,    0.1,    0.2,   -0.1,    0.1,    0.1,   -0.1,    0.2,    0.1,    0.3,    0.1,   -0.1,   -0.1,    0.2,    0.0,    0.1,   -0.0,    0.1,    0.1,    0.0,  999.0,  999.0,  999.0,  999.0,  999.0
2015/02/02 16:20,  999.0,  999.0,   -0.1,   -0.1,  999.0,  999.0,    0.1,  999.0,    0.2,    0.0,   -0.0,    0.2,    0.0,    0.1,    0.2,    0.2,   -0.1,   -0.3,   -0.3,   -0.3,   -0.1,    0.2,    0.2,   -0.0,    0.0,    0.2,    0.2,   -0.1,    0.0,    0.1,   -0.1,   -0.0,    0.0,   -0.1,    0.1,    0.2,   -0.0,   -0.3,  999.0,   -0.1,   -0.0,    0.0,   -0.1,    0.2,    0.0,   -0.2,    0.1,   -0.0,    0.1,    0.1,   -0.1,    0.2,   -0.1,    0.2,    0.1,    0.0,    0.1,   -0.0,    0.1,   -0.2,   -0.2,    0.1,    0.1,    0.1,   -0.2,    0.2,    0.0,   -0.0,   -0.1,   -0.1,   -0.0,   -0.0,   -0.3,  999.0,   -0.2,  999.0,  999.0,  999.0,  999.0,  999.0
2015/02/02 16:30,  999.0,  999.0,   -0.0,    0.0,    0.1,    0.1,    0.2,   -0.1,    0.0,    0.3,    0.1,    0.0,   -0.0,   -0.0,    0.2,    0.0,   -0.0,   -0.0,   -0.1,   -0.2,   -0.5,   -0.2,   -0.1,   -0.1,   -0.1,    0.2,    0.1,   -0.0,    0.0,    0.1,    0.2,   -0.0,    0.0,   -0.0,   -0.0,    0.1,  999.0,   -0.1,    0.2,    0.1,   -0.2,   -0.1,   -0.3,   -0.1,   -0.1,   -0.0,    0.0,    0.1,    0.1,    0.1,    0.1,    0.1,   -0.0,    0.0,   -0.1,    0.0,    0.0,   -0.0,   -0.1,   -0.1,    0.1,    0.0,   -0.1,   -0.3,    0.1,   -0.0,    0.0,    0.0,    0.0,    0.1,   -0.3,    0.1,    0.0,  999.0,  999.0,  999.0,  999.0,  999.0,  999.0,  999.0
2015/02/02 16:40,  999.0,    0.0,    0.0,    0.1,    0.2,    0.4,    0.3,   -0.0,    0.3,    0.1,    0.2,    0.1,    0.1,    0.1,   -0.0,   -0.2,   -0.3,   -0.3,   -0.4,   -0.3,   -0.0,   -0.0,   -0.0,   -0.0,   -0.0,    0.1,   -0.1,   -0.0,   -0.2,    0.2,   -0.1,    0.1,   -0.4,    0.0,   -0.0,   -0.0,    0.1,    0.1,    0.5,    0.1,   -0.1,   -0.1,    0.1,   -0.0,   -0.1,    0.2,    0.1,    0.2,    0.2,    0.1,    0.0,   -0.1,    0.1,    0.2,   -0.1,   -0.1,    0.1,   -0.0,    0.2,    0.2,    0.1,    0.0,    0.0,    0.1,   -0.0,   -0.1,   -0.0,   -0.0,    0.2,  999.0,   -0.3,    0.0,   -0.0,  999.0,  999.0,  999.0,  999.0,  999.0,  999.0,  999.0
2015/02/02 16:50,  999.0,    0.1,    0.2,    0.1,    0.3,    0.2,    0.0,    0.1,    0.3,    0.2,    0.1,    0.3,    0.0,    0.0,    0.0,    0.0,   -0.1,   -0.3,   -0.3,   -0.2,   -0.2,    0.0,    0.1,   -0.1,   -0.0,    0.0,    0.3,   -0.1,   -0.1,   -0.1,    0.0,    0.1,    0.1,  999.0,    0.1,    0.3,  999.0,   -0.3,    0.1,   -0.0,   -0.1,    0.1,    0.2,   -0.3,    0.1,   -0.1,   -0.2,   -0.1,   -0.1,   -0.0,   -0.1,   -0.0,   -0.1,   -0.1,    0.0,    0.1,    0.2,   -0.2,   -0.1,    0.3,    0.1,    0.3,    0.1,    0.1,    0.0,   -0.1,   -0.0,   -0.1,   -0.0,  999.0,  999.0,  999.0,  999.0,  999.0,  999.0,  999.0,  999.0,  999.0,  999.0,  999.0
2015/02/02 17:00,  999.0,   -0.0,    0.2,    0.2,    0.0,    0.1,    0.1,    0.2,    0.1,    0.3,    0.3,    0.1,    0.1,    0.0,   -0.0,   -0.1,   -0.2,   -0.2,   -0.1,   -0.1,   -0.2,    0.0,    0.0,    0.2,   -0.1,   -0.0,   -0.2,   -0.2,    0.0,    0.0,   -0.2,   -0.1,   -0.2,   -0.2,   -0.1,   -0.1,   -0.2,  999.0,   -0.1,    0.2,    0.1,   -0.0,   -0.3,   -0.2,   -0.0,    0.0,    0.1,   -0.1,   -0.0,    0.2,    0.0,   -0.2,    0.1,   -0.2,    0.2,   -0.1,   -0.2,    0.1,    0.1,   -0.0,    0.1,   -0.0,   -0.1,    0.0,   -0.1,    0.0,    0.3,    0.1,    0.3,  999.0,  999.0,    0.3,    0.0,    0.0,   -0.3,  999.0,  999.0,  999.0,  999.0,  999.0
2015/02/02 17:10,  999.0,   -0.0,   -0.1,    0.2,    0.1,    0.0,   -0.1,   -0.0,    0.0,   -0.1,    0.0,   -0.1,    0.0,   -0.0,   -0.3,   -0.2,   -0.5,   -0.7,    0.1,   -0.2,    0.0,   -0.1,    0.0,    0.0,   -0.1,   -0.1,   -0.1,    0.1,    0.0,    0.1,    0.0,   -0.0,    0.1,   -0.2,  999.0,   -0.1,   -0.1,   -0.2,   -0.0,    0.1,    0.2,    0.1,   -0.1,   -0.3,   -0.1,   -0.1,   -0.2,   -0.0,    0.2,    0.3,    0.1,    0.1,   -0.3,   -0.0,    0.3,   -0.0,   -0.2,   -0.2,   -0.1,    0.1,    0.0,   -0.1,    0.1,   -0.1,   -0.1,   -0.0,    0.1,   -0.1,   -0.1,  999.0,    0.5,   -0.2,  999.0,   -0.2,  999.0,  999.0,  999.0,  999.0,  999.0,  999.0
2015/02/02 17:20,  999.0,    0.2,    0.3,    0.3,   -0.1,   -0.0,    0.1,    0.2,    0.1,   -0.0,   -0.0,    0.1,   -0.1,   -0.0,    0.1,    0.3,    0.4,    1.3,    1.1,    0.2,   -0.2,   -0.1,   -0.0,   -0.0,    0.1,    0.2,   -0.3,   -0.3,   -0.0,    0.2,   -0.0,   -0.2,   -0.2,  999.0,  999.0,   -0.4,   -0.2,   -0.0,    0.2,   -0.1,   -0.3,   -0.3,   -0.1,    0.1,    0.0,    0.1,   -0.0,    0.0,    0.0,    0.3,   -0.3,   -0.1,    0.1,    0.2,    0.1,    0.3,    0.0,    0.1,   -0.4,   -0.2,   -0.1,   -0.3,   -0.0,    0.2,   -0.0,    0.1,    0.2,   -0.0,   -0.1,  999.0,    0.2,    0.1,  999.0,  999.0,  999.0,  999.0,  999.0,  999.0,  999.0,  999.0
2015/02/02 17:30,  999.0,    0.0,    0.2,    0.2,    0.1,    0.0,    0.1,    0.0,    0.1,   -0.1,    0.0,    0.1,    0.1,   -0.1,   -0.1,    0.3,    1.7,    1.6,    0.7,    0.2,   -0.1,   -0.0,   -0.0,   -0.1,    0.0,    0.0,   -0.0,    0.2,   -0.0,    0.0,    0.1,    0.2,  999.0,    0.1,   -0.1,   -0.3,   -0.2,   -0.5,    0.2,   -0.1,   -0.4,   -0.2,    0.0,    0.1,    0.2,    0.1,    0.1,    0.2,   -0.1,    0.3,    0.2,    0.0,    0.1,   -0.2,    0.0,   -0.1,    0.1,    0.0,    0.0,    0.0,   -0.1,   -0.2,    0.0,    0.2,    0.0,    0.1,   -0.2,    0.1,    0.3,  999.0,  999.0,  999.0,  999.0,    0.3,  999.0,  999.0,  999.0,  999.0,  999.0,  999.0
2015/02/02 17:40,  999.0,    0.1,    0.3,    0.0,    0.1,    0.1,   -0.1,   -0.0,   -0.0,    0.1,    0.2,   -0.0,    0.0,    0.1,   -0.1,    0.1,    1.1,   -0.2,   -0.5,    0.1,    0.1,   -0.1,   -0.1,   -0.2,   -0.0,    0.1,   -0.1,   -0.2,    0.0,   -0.1,    0.1,  999.0,  999.0,   -0.1,    0.2,   -0.0,    0.1,    0.2,   -0.1,   -0.2,   -0.1,   -0.0,   -0.2,   -0.1,   -0.1,   -0.0,   -0.1,    0.1,   -0.2,   -0.1,    0.0,   -0.2,    0.0,   -0.1,    0.1,   -0.5,   -0.0,   -0.1,   -0.2,    0.2,    0.2,   -0.1,    0.1,    0.3,    0.1,    0.1,    0.0,   -0.3,  999.0,  999.0,  999.0,  999.0,  999.0,   -0.3,  999.0,  999.0,  999.0,  999.0,  999.0,  999.0
2015/02/02 17:50,  999.0,  999.0,    0.1,    0.1,    0.0,  999.0,    0.1,   -0.1,   -0.2,   -0.0,    0.1,   -0.0,    0.0,   -0.1,   -0.3,   -0.6,   -0.9,   -2.2,   -0.7,   -0.1,   -0.1,   -0.1,   -0.2,   -0.1,   -0.2,   -0.0,   -0.1,   -0.0,    0.1,   -0.1,    0.2,   -0.0,   -0.2,    0.1,    0.2,    0.3,    0.2,   -0.2,   -0.1,    0.0,   -0.2,   -0.4,   -0.3,   -0.1,   -0.4,    0.0,    0.1,   -0.0,   -0.0,    0.2,    0.0,    0.1,    0.0,    0.1,    0.2,    0.1,    0.0,    0.2,   -0.2,   -0.3,   -0.0,    0.1,  999.0,    0.0,    0.2,    0.0,    0.1,    0.2,   -0.2,  999.0,  999.0,  999.0,  999.0,    0.1,  999.0,  999.0,  999.0,  999.0,  999.0,  999.0
2015/02/02 18:00,  999.0,    0.1,   -0.1,   -0.1,    0.1,    0.4,    0.1,    0.1,    0.1,   -0.1,   -0.1,    0.0,    0.1,    0.0,   -0.1,   -0.1,    0.1,    0.5,    0.9,    0.1,   -0.3,   -0.3,   -0.2,    0.0,   -0.0,   -0.1,    0.1,   -0.1,    0.0,   -0.1,    0.1,   -0.2,  999.0,   -0.4,  999.0,   -0.3,    0.5,    0.2,    0.0,    0.1,    0.4,    0.3,   -0.2,   -0.1,    0.0,   -0.0,   -0.0,   -0.0,   -0.1,    0.1,   -0.2,    0.0,    0.1,   -0.1,   -0.3,   -0.4,   -0.4,   -0.1,   -0.1,    0.0,    0.1,   -0.1,   -0.1,   -0.2,    0.2,   -0.0,   -0.0,    0.2,  999.0,  999.0,  999.0,  999.0,    0.0,    0.4,  999.0,  999.0,  999.0,  999.0,  999.0,  999.0
2015/02/02 18:10,  999.0,    0.0,    0.1,    0.2,    0.1,    0.2,    0.2,    0.3,    0.3,    0.3,    0.1,   -0.0,    0.0,   -0.0,   -0.0,    0.1,   -0.1,   -0.0,    0.3,    0.6,    0.2,   -0.1,   -0.1,    0.0,    0.0,    0.0,    0.0,    0.0,   -0.1,    0.1,   -0.2,    0.2,    0.2,    0.3,    0.1,  999.0,    0.3,    0.3,   -0.2,    0.1,   -0.4,    0.0,   -0.2,   -0.4,    0.0,   -0.1,    0.1,    0.1,    0.0,    0.0,    0.0,    0.1,   -0.2,   -0.1,    0.2,   -0.1,    0.4,    0.0,   -0.2,   -0.1,   -0.1,   -0.1,    0.0,   -0.0,   -0.1,    0.1,    0.3,    0.1,  999.0,  999.0,  999.0,  999.0,  999.0,    0.2,  999.0,  999.0,  999.0,  999.0,  999.0,  999.0
2015/02/02 18:20,  999.0,   -0.0,   -0.0,   -0.1,    0.1,    0.0,    0.0,    0.0,    0.1,    0.1,    0.1,    0.1,   -0.0,   -0.1,   -0.1,   -0.1,   -0.1,   -0.0,    0.5,    0.7,    0.4,    0.1,   -0.1,    0.1,    0.1,   -0.1,   -0.3,   -0.2,   -0.0,   -0.1,    0.2,    0.2,   -0.0,    0.5,    0.4,  999.0,    0.1,  999.0,    0.0,    0.4,   -0.1,    0.2,    0.2,    0.2,    0.2,    0.0,    0.0,    0.1,    0.1,   -0.0,    0.1,    0.1,   -0.0,   -0.1,   -0.1,    0.1,    0.0,   -0.0,    0.1,   -0.3,   -0.2,   -0.1,   -0.0,   -0.0,   -0.2,  999.0,    0.1,   -0.2,   -0.1,  999.0,    0.2,  999.0,  999.0,  999.0,  999.0,  999.0,  999.0,  999.0,  999.0,  999.0
2015/02/02 18:30,  999.0,   -0.0,    0.1,    0.0,    0.4,    0.3,    0.1,    0.2,    0.1,    0.2,    0.4,    0.3,    0.2,    0.2,    0.2,    0.2,    0.3,    1.2,    1.5,    1.1,    0.2,    0.1,   -0.1,   -0.0,   -0.1,   -0.1,   -0.0,   -0.1,    0.0,   -0.2,    0.1,    0.4,    0.2,    0.3,    0.4,    0.1,    0.2,   -0.1,   -0.1,    0.4,   -0.2,   -0.2,    0.1,    0.0,   -0.0,   -0.0,   -0.1,    0.2,    0.1,   -0.1,    0.0,   -0.1,   -0.0,    0.1,   -0.1,    0.2,    0.2,   -0.0,   -0.2,    0.0,   -0.0,   -0.4,   -0.1,   -0.1,    0.2,    0.2,   -0.2,   -0.1,    0.2,  999.0,  999.0,  999.0,   -0.1,  999.0,  999.0,  999.0,  999.0,  999.0,  999.0,  999.0
2015/02/02 18:40,  999.0,    0.2,    0.3,    0.3,    0.3,    0.1,    0.1,    0.2,    0.2,    0.4,    0.4,    0.1,    0.2,    0.3,    0.1,    0.1,    0.3,    1.0,    0.8,    0.4,   -0.0,   -0.3,   -0.1,    0.1,    0.1,    0.1,   -0.2,   -0.1,    0.1,    0.0,   -0.0,    0.0,   -0.0,   -0.4,   -0.3,  999.0,   -0.1,   -0.2,   -0.1,   -0.1,   -0.7,   -0.1,    0.4,    0.0,   -0.1,    0.3,    0.1,    0.0,   -0.0,    0.1,    0.2,    0.2,   -0.1,   -0.0,   -0.2,   -0.1,    0.2,   -0.2,    0.3,   -0.1,   -0.1,   -0.1,    0.3,    0.1,    0.0,   -0.2,  999.0,  999.0,   -0.6,  999.0,  999.0,  999.0,  999.0,   -0.1,  999.0,  999.0,  999.0,  999.0,  999.0,  999.0
2015/02/02 18:50,  999.0,    0.1,    0.1,   -0.1,    0.1,    0.2,   -0.1,   -0.0,    0.2,    0.2,    0.1,    0.1,    0.1,    0.2,    0.2,    0.4,    0.4,    0.5,    1.0,    1.5,    0.3,    0.4,    0.2,   -0.1,    0.0,   -0.2,   -0.0,   -0.2,    0.1,   -0.1,   -0.1,    0.1,    0.3,    0.2,   -0.1,    0.1,    0.1,   -0.4,    0.1,    0.4,    0.1,  999.0,    0.1,   -0.1,   -0.7,  999.0,   -0.0,   -0.1,    0.1,  999.0,    0.1,  999.0,  999.0,  999.0,    0.2,  999.0,    0.1,   -0.0,    0.0,   -0.5,   -0.3,   -0.0,   -0.0,   -0.5,    0.0,   -0.2,  999.0,    0.2,    0.2,  999.0,  999.0,  999.0,  999.0,  999.0,  999.0,  999.0,  999.0,  999.0,  999.0,  999.0
2015/02/02 19:00,  999.0,    0.0,   -0.0,    0.1,    0.3,    0.1,    0.3,    0.0,    0.1,    0.2,    0.4,    0.2,    0.2,    0.2,    0.2,    0.2,    0.1,    0.1,    0.5,    1.8,    0.7,    0.4,    0.0,   -0.0,   -0.2,   -0.0,   -0.0,   -0.1,   -0.0,   -0.2,   -0.0,   -0.1,   -0.1,   -0.0,   -0.2,    0.5,    0.0,  999.0,   -0.0,    0.3,   -0.3,   -0.3,    0.1,    0.0,    0.0,   -0.1,    0.0,    0.1,   -0.1,   -0.0,    0.1,  999.0,   -0.1,    0.2,    0.1,   -0.4,    0.1,    0.4,    0.1,    0.3,    0.1,   -0.1,    0.1,   -0.3,    0.1,    0.1,   -0.1,    0.1,   -0.2,  999.0,  999.0,  999.0,    0.5,   -0.1,  999.0,  999.0,  999.0,  999.0,  999.0,  999.0
2015/02/02 19:10,  999.0,   -0.2,   -0.2,   -0.1,   -0.1,   -0.1,    0.1,    0.1,    0.1,    0.2,    0.1,    0.0,    0.0,    0.2,    0.1,    0.1,    0.2,    0.2,    0.3,    0.8,    0.5,    0.1,   -0.0,   -0.0,   -0.0,   -0.0,   -0.2,   -0.1,   -0.4,   -0.1,   -0.1,   -0.3,   -0.0,   -0.3,   -0.3,   -0.3,    0.2,    0.3,   -0.1,   -0.2,   -0.1,   -0.1,   -0.2,    0.1,    0.2,   -0.2,   -0.2,   -0.2,    0.1,   -0.1,    0.3,   -0.0,   -0.5,   -0.2,    0.2,   -0.0,   -0.2,   -0.1,   -0.2,    0.1,    0.0,   -0.1,    0.0,   -0.0,    0.1,   -0.2,  999.0,  999.0,   -0.2,  999.0,  999.0,  999.0,    0.0,    0.0,  999.0,  999.0,  999.0,  999.0,  999.0,  999.0
2015/02/02 19:20,  999.0,    0.1,   -0.2,    0.1,   -0.2,  999.0,   -0.1,    0.1,   -0.1,    0.1,   -0.0,    0.1,    0.1,    0.1,    0.1,    0.0,    0.0,    0.1,    0.6,    0.9,    0.3,   -0.1,    0.2,   -0.1,    0.1,   -0.1,   -0.1,   -0.1,   -0.0,   -0.1,    0.0,    0.0,    0.2,    0.2,   -0.2,    0.0,   -0.2,    0.3,    0.1,    0.0,   -0.5,  999.0,    0.1,   -0.1,    0.0,    0.0,   -0.2,   -0.2,    0.0,    0.2,   -0.1,   -0.3,    0.2,    0.2,   -0.1,   -0.4,    0.3,   -0.0,   -0.0,   -0.0,   -0.1,    0.1,    0.0,    0.1,    0.2,    0.1,   -0.0,   -0.2,    0.2,  999.0,  999.0,  999.0,  999.0,  999.0,  999.0,  999.0,  999.0,  999.0,  999.0,  999.0
2015/02/02 19:30,  999.0,    0.1,   -0.0,    0.0,   -0.2,   -0.2,   -0.2,   -0.2,    0.2,    0.1,    0.1,    0.1,    0.0,    0.0,    0.0,   -0.1,   -0.0,   -0.2,   -0.1,   -0.3,   -0.1,   -0.2,    0.0,   -0.0,   -0.2,   -0.1,    0.0,    0.0,   -0.1,    0.0,    0.2,    0.1,    0.0,    0.1,    0.1,   -0.2,    0.1,    0.1,   -0.0,    0.2,   -0.2,   -0.1,    0.3,    0.2,    0.1,    0.1,    0.1,   -0.0,   -0.1,   -0.1,    0.1,    0.2,    0.0,   -0.1,   -0.5,   -0.0,   -0.1,   -0.1,   -0.2,    0.1,    0.2,    0.0,    0.1,   -0.1,   -0.1,  999.0,  999.0,    0.3,  999.0,  999.0,  999.0,   -0.6,   -0.4,   -0.1,  999.0,  999.0,  999.0,  999.0,  999.0,  999.0
2015/02/02 19:40,  999.0,   -0.0,    0.1,    0.3,  999.0,   -0.0,    0.1,  999.0,  999.0,   -0.0,   -0.1,    0.0,    0.1,   -0.0,    0.0,   -0.1,    0.0,   -0.1,    0.0,   -0.0,    0.2,    0.4,   -0.2,   -0.1,   -0.1,    0.0,    0.0,    0.1,   -0.1,   -0.0,    0.0,   -0.1,   -0.1,   -0.3,   -0.1,    0.2,    0.0,   -0.0,   -0.0,   -0.0,   -0.3,    0.2,    0.1,    0.2,    0.1,    0.0,   -0.1,    0.1,   -0.2,   -0.3,    0.0,   -0.1,    0.1,    0.0,   -0.2,   -0.1,   -0.1,   -0.2,    0.0,    0.0,    0.1,    0.1,    0.0,   -0.0,   -0.2,   -0.5,    0.0,    0.3,    0.2,  999.0,  999.0,  999.0,   -0.7,    0.1,  999.0,  999.0,  999.0,  999.0,  999.0,  999.0
2015/02/02 19:50,  999.0,   -0.1,   -0.1,   -0.1,   -0.0,   -0.0,    0.3,    0.1,    0.1,    0.1,   -0.0,    0.0,   -0.1,    0.0,    0.1,    0.1,   -0.1,   -0.2,   -0.1,   -0.0,  999.0,    0.1,   -0.0,    0.1,    0.1,    0.0,   -0.0,    0.0,    0.1,    0.1,    0.2,    0.0,   -0.1,    0.2,   -0.0,    0.1,   -0.2,  999.0,   -0.2,    0.1,   -0.5,   -0.0,    0.2,   -0.1,   -0.0,    0.1,    0.2,    0.1,   -0.0,   -0.1,    0.0,    0.1,   -0.1,    0.1,    0.0,    0.2,    0.0,    0.3,   -0.1,   -0.2,    0.0,   -0.2,   -0.1,   -0.4,   -0.2,   -0.2,    0.0,   -0.0,   -0.1,  999.0,  999.0,   -0.1,   -0.2,   -0.1,  999.0,  999.0,  999.0,  999.0,  999.0,  999.0
2015/02/02 20:00,  999.0,    0.1,   -0.0,    0.1,    0.4,    0.0,    0.0,    0.2,    0.2,    0.3,    0.1,    0.1,    0.3,    0.1,    0.2,    0.5,    0.3,    0.8,    0.0,    0.5,    0.4,   -0.1,   -0.2,   -0.1,    0.1,    0.0,   -0.2,   -0.1,    0.0,    0.1,   -0.0,   -0.0,   -0.1,    0.1,    0.2,    0.0,  999.0,    0.2,   -0.0,   -0.2,   -0.1,   -0.0,    0.0,   -0.1,   -0.1,   -0.2,    0.0,   -0.1,    0.1,   -0.1,    0.1,    0.3,    0.2,   -0.1,   -0.0,   -0.0,   -0.2,    0.1,   -0.0,   -0.1,   -0.0,    0.2,   -0.2,   -0.1,    0.1,    0.0,    0.3,    0.0,    0.0,    0.0,  999.0,   -0.4,  999.0,    0.2,  999.0,  999.0,  999.0,  999.0,  999.0,  999.0
2015/02/02 20:10,  999.0,    0.3,    0.3,   -0.3,   -0.1,   -0.1,    0.5,    0.3,    1.3,    2.0,    0.4,    1.7,    0.8,    0.0,   -0.3,    0.5,    0.2,    1.4,    0.8,  999.0,    0.4,   -0.1,    0.3,   -0.1,    0.0,   -0.3,   -0.0,   -0.1,    0.2,    0.1,   -0.0,    0.1,   -0.0,   -0.1,    0.0,    0.0,    0.2,    0.1,   -0.0,   -0.0,   -0.1,   -0.1,    0.0,    0.1,   -0.1,    0.1,    0.2,    0.1,   -0.1,    0.3,   -0.4,    0.0,   -0.4,    0.1,   -0.1,   -0.0,    0.3,   -0.0,   -0.3,   -0.3,   -0.1,   -0.1,    0.1,   -0.1,   -0.0,   -0.1,   -0.1,   -0.1,   -0.2,   -0.2,   -0.1,   -0.4,  999.0,  999.0,  999.0,  999.0,  999.0,  999.0,  999.0,  999.0
2015/02/02 20:20,  999.0,   -0.1,   -0.1,    0.9,    0.1,   -0.1,    0.0,    0.2,    1.0,    0.1,  999.0,    1.2,    0.5,    0.9,    0.8,    0.1,  999.0,    0.6,  999.0,  999.0,   -0.2,   -0.4,   -0.2,   -0.1,   -0.1,   -0.1,   -0.1,   -0.0,    0.0,    0.0,   -0.1,   -0.0,   -0.1,   -0.0,   -0.1,   -0.0,    0.1,   -0.2,   -0.2,    0.0,   -0.1,   -0.2,   -0.0,    0.2,    0.1,    0.1,   -0.1,   -0.3,   -0.0,   -0.4,   -0.3,   -0.3,   -0.2,   -0.2,   -0.3,   -0.1,   -0.1,   -0.0,   -0.2,    0.2,   -0.2,   -0.2,    0.2,   -0.0,   -0.0,   -0.0,   -0.2,   -0.1,   -0.2,    0.0,  999.0,  999.0,  999.0,  999.0,  999.0,  999.0,  999.0,  999.0,  999.0,  999.0
2015/02/02 20:30,  999.0,    0.1,   -0.1,   -0.4,   -0.1,   -0.0,   -0.4,   -0.3,   -0.6,   -0.7,   -1.6,    0.5,   -0.4,   -0.4,    0.3,   -1.3,   -0.8,   -1.1,   -0.2,    2.1,  999.0,   -1.0,   -0.5,   -0.1,   -0.0,    0.0,    0.0,   -0.0,    0.1,   -0.1,   -0.1,   -0.2,   -0.0,    0.0,   -0.4,   -0.0,  999.0,  999.0,    0.3,    0.1,   -0.2,   -0.0,    0.0,    0.1,   -0.1,   -0.1,    0.2,    0.1,    0.0,    0.0,    0.3,   -0.1,   -0.2,   -0.1,    0.0,    0.0,   -0.2,   -0.1,    0.4,  999.0,   -0.1,    0.2,    0.1,   -0.1,    0.3,   -0.1,   -0.0,   -0.1,   -0.2,  999.0,  999.0,  999.0,  999.0,  999.0,  999.0,  999.0,  999.0,  999.0,  999.0,  999.0
2015/02/02 20:40,  999.0,    0.1,   -0.1,   -0.2,   -0.3,    0.0,   -0.1,    0.1,    0.3,    1.1,    2.1,    0.7,    1.5,   -0.8,   -0.2,    1.7,    2.2,    2.9,    3.3,    2.3,   -0.3,   -0.1,   -0.9,   -0.2,    0.1,   -0.0,    0.0,   -0.2,    0.1,   -0.2,   -0.1,    0.1,    0.0,    0.0,    0.2,    0.0,  999.0,   -0.1,    0.0,    0.1,   -0.2,   -0.2,    0.2,    0.0,    0.0,   -0.1,    0.0,    0.0,    0.1,   -0.0,   -0.1,   -0.1,   -0.1,   -0.1,    0.1,   -0.0,   -0.1,   -0.2,    0.1,   -0.1,    0.0,    0.1,    0.2,   -0.0,   -0.0,   -0.0,    0.2,   -0.1,   -0.1,    0.1,  999.0,  999.0,  999.0,  999.0,  999.0,  999.0,  999.0,  999.0,  999.0,  999.0
2015/02/02 20:50,  999.0,    0.1,   -0.2,   -0.0,   -0.5,   -0.2,    0.0,    0.0,   -0.1,   -0.3,   -1.5,   -0.3,    0.0,   -0.0,    0.2,    0.9,    1.2,    1.4,    1.9,    2.0,    1.6,    0.5,   -0.2,   -0.1,   -0.0,    0.0,    0.1,   -0.1,    0.1,    0.1,    0.1,    0.0,    0.0,   -0.1,    0.1,    0.2,  999.0,    0.2,    0.0,    0.2,   -0.1,    0.0,    0.0,    0.0,    0.1,   -0.1,    0.0,    0.0,   -0.1,    0.1,    0.2,    0.2,   -0.3,   -0.1,    0.1,    0.2,    0.1,    0.0,    0.1,   -0.1,   -0.2,   -0.1,   -0.1,   -0.1,   -0.1,   -0.1,    0.3,    0.1,   -0.0,   -0.2,    0.3,    0.2,    0.0,  999.0,  999.0,  999.0,  999.0,  999.0,  999.0,  999.0
2015/02/02 21:00,  999.0,   -0.3,   -0.6,   -0.5,   -0.1,   -0.3,   -0.2,   -0.2,    0.2,   -0.0,    0.0,  999.0,   -0.7,    0.4,    0.9,    0.3,    0.8,    0.6,    0.7,    0.7,    1.3,   -0.4,   -0.4,   -0.2,    0.1,    0.0,    0.1,   -0.0,   -0.0,   -0.0,   -0.0,   -0.0,    0.3,    0.1,   -0.2,   -0.1,   -0.2,   -0.1,    0.0,   -0.0,   -0.3,   -0.1,    0.1,    0.1,   -0.1,    0.2,   -0.0,   -0.1,   -0.1,    0.2,    0.3,    0.0,   -0.1,   -0.2,    0.0,   -0.1,   -0.1,    0.2,    0.1,   -0.1,   -0.2,   -0.0,    0.2,    0.3,   -0.0,    0.4,    0.0,   -0.3,    0.2,   -0.0,  999.0,  999.0,    0.1,  999.0,  999.0,  999.0,  999.0,  999.0,  999.0,  999.0
2015/02/02 21:10,  999.0,   -0.3,   -0.3,   -0.1,   -1.1,   -0.3,   -0.2,   -0.5,   -0.4,   -0.9,   -0.7,   -0.2,   -0.1,   -0.1,    0.2,    0.3,    0.2,    0.2,   -0.1,   -0.2,   -0.8,   -0.6,   -0.7,   -0.6,   -0.1,   -0.0,   -0.1,    0.2,    0.1,   -0.2,   -0.2,   -0.2,   -0.0,   -0.1,    0.1,  999.0,  999.0,  999.0,   -0.1,   -0.1,   -0.4,   -0.1,  999.0,    0.1,    0.1,    0.1,    0.2,   -0.2,   -0.1,    0.1,    0.1,    0.1,    0.2,   -0.1,    0.1,    0.1,    0.5,   -0.2,   -0.2,   -0.4,   -0.0,   -0.2,   -0.1,   -0.3,    0.1,    0.3,    0.1,   -0.1,   -0.1,  999.0,  999.0,  999.0,    0.4,  999.0,  999.0,  999.0,  999.0,  999.0,  999.0,  999.0
2015/02/02 21:20,  999.0,   -0.1,   -0.5,   -0.7,   -0.4,   -0.1,   -0.5,   -0.4,   -0.2,    0.1,    0.1,    0.4,   -0.1,   -0.2,    0.1,   -0.4,   -0.6,   -0.1,    1.1,    1.3,   -0.5,   -0.0,   -0.4,   -0.3,    0.1,   -0.1,   -0.2,   -0.1,   -0.0,    0.1,    0.1,   -0.0,   -0.0,    0.2,    0.1,  999.0,   -0.0,   -0.4,   -0.4,   -0.3,   -0.3,  999.0,  999.0,   -0.3,   -0.2,    0.3,  999.0,   -0.0,   -0.1,   -0.3,   -0.0,   -0.1,   -0.1,    0.0,    0.2,   -0.1,   -0.2,  999.0,   -0.2,  999.0,    0.2,   -0.1,   -0.1,    0.2,    0.5,  999.0,   -0.2,    0.0,   -0.2,   -0.3,  999.0,  999.0,    0.1,  999.0,  999.0,  999.0,  999.0,  999.0,  999.0,  999.0
2015/02/02 21:30,  999.0,    0.0,   -0.3,   -0.0,   -0.2,   -0.1,   -0.3,   -0.2,    0.5,    0.6,   -0.6,   -0.2,    0.5,    1.0,    0.9,    1.6,    1.2,    2.2,    4.1,   -0.1,  999.0,   -1.7,  999.0,    0.5,    0.1,    0.0,    0.2,    0.1,   -0.0,    0.2,    0.1,    0.2,    0.1,   -0.3,    0.2,    0.0,   -0.2,    0.1,    0.1,   -0.3,   -0.4,   -0.8,  999.0,    0.1,    0.2,    0.2,  999.0,    0.1,  999.0,    0.2,   -0.1,    0.2,    0.1,    0.2,    0.0,   -0.2,   -0.0,    0.0,    0.1,   -0.1,    0.1,    0.1,   -0.1,   -0.4,    0.3,    0.1,   -0.5,   -0.2,    0.2,    0.2,  999.0,  999.0,  999.0,  999.0,  999.0,  999.0,  999.0,  999.0,  999.0,  999.0
2015/02/02 21:40,  999.0,   -0.3,   -0.5,   -0.4,   -0.3,   -0.2,   -0.1,   -0.2,   -0.2,   -0.2,   -0.6,   -1.5,    0.1,    0.2,    0.3,    1.0,   -0.0,    2.5,    1.0,    0.3,   -0.5,   -0.8,   -1.1,   -0.2,    0.1,    0.1,    0.2,   -0.1,   -0.0,    0.0,   -0.2,   -0.1,    0.2,    0.2,   -0.3,  999.0,  999.0,  999.0,   -0.1,  999.0,   -0.3,   -0.1,    0.1,    0.2,    0.0,   -0.4,   -0.1,    0.1,   -0.1,    0.0,   -0.1,   -0.3,   -0.1,   -0.7,   -0.2,   -0.1,   -0.3,   -0.1,   -0.0,    0.1,   -0.2,    0.3,    0.2,    0.4,    0.2,   -0.0,  999.0,    0.1,   -0.1,   -0.3,  999.0,  999.0,  999.0,  999.0,  999.0,  999.0,  999.0,  999.0,  999.0,  999.0
2015/02/02 21:50,  999.0,   -0.2,   -0.4,   -0.2,   -0.1,   -0.1,   -0.1,   -0.2,   -0.3,   -0.3,   -0.0,   -1.1,    0.7,    0.9,    1.7,    1.4,    1.2,    0.4,  999.0,   -1.8,    0.9,   -0.7,   -0.1,   -0.0,   -0.1,   -0.2,   -0.2,    0.1,    0.1,    0.0,    0.0,    0.2,    0.2,    0.0,    0.0,   -0.3,   -0.3,  999.0,    0.1,  999.0,   -0.7,  999.0,   -0.2,    0.0,   -0.3,  999.0,   -0.1,  999.0,    0.1,    0.0,    0.0,  999.0,    0.1,    0.0,  999.0,   -0.1,    0.2,    0.2,    0.9,    0.1,   -0.2,    0.5,  999.0,  999.0,  999.0,    0.1,    0.0,  999.0,  999.0,  999.0,  999.0,  999.0,  999.0,  999.0,  999.0,  999.0,  999.0,  999.0,  999.0,  999.0
2015/02/02 22:00,  999.0,   -0.0,   -0.2,   -0.5,   -0.4,    0.2,    0.4,    0.3,   -0.0,   -0.3,   -0.3,   -0.3,    0.0,    0.3,    0.1,    0.5,   -0.3,    1.1,    0.4,   -0.3,  999.0,   -0.1,   -0.1,    0.1,   -0.0,   -0.0,    0.3,    0.2,   -0.1,    0.0,   -0.1,    0.2,    0.1,    0.1,    0.1,  999.0,  999.0,  999.0,  999.0,   -0.1,    0.1,   -0.2,   -0.3,   -0.2,   -0.1,   -0.1,    0.3,  999.0,    0.1,    0.2,    0.3,    0.0,    0.2,   -0.0,   -0.2,   -0.3,   -0.1,    0.0,  999.0,    0.1,    0.3,   -0.1,  999.0,  999.0,   -0.1,    0.0,    0.1,  999.0,  999.0,  999.0,  999.0,  999.0,  999.0,  999.0,  999.0,  999.0,  999.0,  999.0,  999.0,  999.0
2015/02/02 22:10,  999.0,   -0.3,   -0.3,   -0.8,   -0.6,    0.1,    0.2,    0.5,    0.3,    0.6,    0.6,    0.1,    0.5,    0.1,   -0.1,    0.0,   -1.2,   -0.5,   -0.3,    0.4,   -0.3,    0.4,   -0.5,   -0.3,    0.2,   -0.0,   -0.1,    0.1,   -0.0,   -0.0,   -0.0,   -0.1,   -0.0,    0.1,    0.0,    0.1,  999.0,    0.3,   -0.1,  999.0,   -0.0,    0.1,   -0.2,  999.0,  999.0,   -0.2,    0.0,   -0.3,    0.4,    0.0,    0.2,    0.2,    0.1,    0.3,   -0.3,    0.3,    0.1,    0.3,    0.2,  999.0,  999.0,   -0.2,   -0.0,   -0.0,  999.0,  999.0,  999.0,  999.0,  999.0,  999.0,  999.0,  999.0,  999.0,  999.0,  999.0,  999.0,  999.0,  999.0,  999.0,  999.0
2015/02/02 22:20,  999.0,   -0.1,   -0.0,   -0.0,   -0.1,    0.2,    0.2,    0.4,    0.2,    0.2,    0.2,   -0.1,    0.4,    0.4,   -0.3,    0.1,   -0.7,   -0.6,   -0.2,    0.1,   -0.3,   -0.1,   -0.0,    0.0,   -0.1,   -0.0,   -0.1,   -0.0,   -0.0,    0.2,    0.2,    0.0,  999.0,    0.3,   -0.3,   -0.0,    0.1,  999.0,    0.3,    1.0,    0.2,   -0.0,   -0.2,  999.0,  999.0,   -0.1,   -0.2,   -0.2,    0.0,  999.0,    0.1,   -0.0,    0.0,    0.2,    0.1,  999.0,   -0.4,    0.3,   -0.2,   -0.4,    0.2,  999.0,   -0.2,   -0.3,    0.0,  999.0,  999.0,  999.0,  999.0,  999.0,  999.0,  999.0,  999.0,  999.0,  999.0,  999.0,  999.0,  999.0,  999.0,  999.0
2015/02/02 22:30,  999.0,    0.0,   -0.1,   -0.8,   -0.3,   -0.0,    0.0,    0.1,   -0.0,   -0.0,    0.0,    0.2,    0.5,    0.9,    0.4,    0.8,    0.6,   -0.1,   -0.8,   -1.0,   -0.7,   -0.3,   -0.0,   -0.1,   -0.0,    0.1,    0.1,   -0.1,   -0.2,    0.2,   -0.1,    0.0,   -0.0,    0.1,    0.0,    0.1,  999.0,  999.0,   -0.2,    0.0,   -0.2,    0.2,  999.0,   -0.0,   -0.1,   -0.1,  999.0,   -0.1,    0.4,    0.1,    0.1,  999.0,   -0.1,    0.1,    0.2,    0.1,    0.2,   -0.5,   -0.0,  999.0,  999.0,  999.0,    0.2,    0.1,  999.0,    0.0,  999.0,  999.0,  999.0,  999.0,  999.0,  999.0,  999.0,  999.0,  999.0,  999.0,  999.0,  999.0,  999.0,  999.0
2015/02/02 22:40,  999.0,   -0.2,   -0.4,   -0.1,   -0.0,   -0.0,   -0.2,   -0.1,    0.3,    0.3,    0.7,    0.8,    0.4,    0.0,   -0.0,  999.0,   -0.8,   -1.1,   -1.0,   -2.0,   -1.3,   -0.5,    0.1,  999.0,    0.1,    0.1,    0.0,   -0.0,   -0.1,    0.3,    0.1,    0.1,   -0.0,    0.0,   -0.0,   -0.1,   -0.3,  999.0,  999.0,   -0.0,    0.1,  999.0,   -0.1,  999.0,    0.3,   -0.1,   -0.3,   -0.3,    0.1,  999.0,  999.0,    0.1,    0.0,    0.1,   -0.4,   -0.2,   -0.1,  999.0,  999.0,  999.0,  999.0,  999.0,  999.0,    0.1,  999.0,  999.0,  999.0,  999.0,  999.0,  999.0,  999.0,  999.0,  999.0,  999.0,  999.0,  999.0,  999.0,  999.0,  999.0,  999.0
2015/02/02 22:50,  999.0,   -0.2,   -0.6,   -0.2,   -0.6,   -0.4,   -0.3,   -0.2,   -0.1,    0.1,    0.1,    0.3,    0.7,    0.7,    1.5,    3.3,    2.1,   -0.1,   -0.3,   -0.9,   -0.6,   -0.1,    0.5,    0.2,   -0.1,   -0.2,    0.1,    0.0,    0.1,   -0.1,   -0.1,   -0.1,    0.3,  999.0,    0.2,   -0.0,  999.0,  999.0,   -0.2,   -0.2,   -0.6,   -0.2,   -0.4,  999.0,  999.0,   -0.1,    0.2,   -0.1,  999.0,  999.0,   -0.1,   -0.2,    0.1,    0.0,    0.2,    0.1,   -0.1,  999.0,    0.5,    0.2,  999.0,   -0.1,  999.0,  999.0,   -0.4,   -0.2,  999.0,  999.0,  999.0,  999.0,  999.0,  999.0,  999.0,  999.0,  999.0,  999.0,  999.0,  999.0,  999.0,  999.0
2015/02/02 23:00,  999.0,   -0.5,   -0.8,   -0.8,   -0.6,   -0.2,   -0.1,   -0.3,  999.0,    0.6,    0.6,    0.7,    1.4,    1.7,  999.0,  999.0,   -0.4,   -0.6,   -1.2,   -1.4,   -1.2,   -0.7,  999.0,   -0.6,   -0.1,   -0.1,    0.0,   -0.1,    0.1,    0.2,    0.1,    0.2,    0.2,  999.0,    0.1,   -0.3,  999.0,  999.0,  999.0,  999.0,    0.0,   -0.1,   -0.3,   -0.1,    0.0,    0.0,  999.0,   -0.3,  999.0,  999.0,  999.0,    0.0,    0.0,   -0.1,    0.0,    0.4,    0.2,  999.0,  999.0,  999.0,   -0.5,  999.0,  999.0,   -0.1,    0.1,   -0.1,  999.0,  999.0,  999.0,  999.0,  999.0,  999.0,  999.0,  999.0,  999.0,  999.0,  999.0,  999.0,  999.0,  999.0
2015/02/02 23:10,  999.0,   -0.1,   -0.7,   -0.9,   -0.7,    0.0,   -0.0,   -0.3,   -0.6,    0.1,    0.8,    0.2,   -0.3,  999.0,    0.1,   -1.4,   -1.7,   -1.2,    0.4,   -1.2,   -0.6,    0.1,  999.0,    0.2,   -0.1,   -0.4,   -0.3,    0.0,   -0.4,   -0.3,   -0.2,    0.1,    0.1,  999.0,  999.0,  999.0,  999.0,  999.0,  999.0,  999.0,  999.0,  999.0,  999.0,   -0.2,   -0.0,    0.2,  999.0,   -0.4,  999.0,  999.0,    0.1,    0.2,   -0.2,    0.2,    0.1,   -0.2,    0.2,  999.0,   -0.2,  999.0,  999.0,  999.0,    0.1,  999.0,  999.0,  999.0,  999.0,  999.0,  999.0,  999.0,  999.0,  999.0,  999.0,  999.0,  999.0,  999.0,  999.0,  999.0,  999.0,  999.0
2015/02/02 23:20,  999.0,    0.1,   -0.1,   -1.3,   -0.8,    0.2,    0.6,    0.7,    0.8,   -0.0,    3.8,  999.0,    1.7,    1.1,  999.0,    0.7,   -0.6,   -0.7,   -0.7,   -0.1,   -0.3,    0.3,  999.0,  999.0,    0.0,  999.0,    0.1,    0.0,   -0.3,   -0.1,   -0.1,  999.0,    0.3,    0.5,    0.0,  999.0,  999.0,  999.0,  999.0,  999.0,  999.0,  999.0,  999.0,    0.0,    0.0,  999.0,   -0.1,  999.0,  999.0,  999.0,  999.0,  999.0,  999.0,   -0.2,    0.0,   -0.1,   -0.1,  999.0,  999.0,  999.0,   -0.3,   -0.2,  999.0,  999.0,  999.0,  999.0,  999.0,  999.0,  999.0,  999.0,  999.0,  999.0,  999.0,  999.0,  999.0,  999.0,  999.0,  999.0,  999.0,  999.0
2015/02/02 23:30,  999.0,    0.0,   -0.0,    0.3,    0.2,    0.5,    0.1,   -0.2,   -0.2,   -0.9,  999.0,  999.0,  999.0,  999.0,  999.0,  999.0,  999.0,    6.2,    4.6,  999.0,  999.0,  999.0,  999.0,  999.0,   -0.2,   -0.4,   -0.1,   -0.5,   -0.5,    0.2,  999.0,   -0.1,   -0.4,    0.0,  999.0,    0.3,  999.0,  999.0,  999.0,  999.0,    0.2,  999.0,  999.0,  999.0,  999.0,  999.0,  999.0,  999.0,  999.0,  999.0,   -0.1,  999.0,  999.0,  999.0,  999.0,    0.2,  999.0,  999.0,  999.0,  999.0,  999.0,  999.0,  999.0,  999.0,  999.0,  999.0,  999.0,  999.0,  999.0,  999.0,  999.0,  999.0,  999.0,  999.0,  999.0,  999.0,  999.0,  999.0,  999.0,  999.0
2015/02/02 23:40,  999.0,   -0.0,   -0.1,   -0.0,    0.4,    0.2,    0.1,    0.0,    0.1,   -0.3,   -0.1,   -0.2,    0.4,   -0.3,  999.0,  999.0,   -1.8,   -1.7,   -1.0,   -1.0,   -0.1,    0.3,    0.1,  999.0,   -0.2,  999.0,  999.0,   -0.7,   -1.1,   -0.3,   -0.4,   -0.4,   -0.1,    0.1,  999.0,    0.1,  999.0,  999.0,  999.0,  999.0,  999.0,  999.0,  999.0,  999.0,   -0.3,   -0.1,    0.4,   -0.1,  999.0,   -0.2,   -0.1,   -0.0,   -0.0,    0.2,   -0.1,   -0.3,   -0.2,  999.0,  999.0,  999.0,  999.0,    0.0,  999.0,  999.0,  999.0,  999.0,  999.0,  999.0,  999.0,  999.0,  999.0,  999.0,  999.0,  999.0,  999.0,  999.0,  999.0,  999.0,  999.0,  999.0
2015/02/02 23:50,  999.0,  999.0,    0.1,    0.2,    0.7,    0.4,    0.5,    0.3,    0.6,    2.1,  999.0,  999.0,  999.0,  999.0,  999.0,    0.5,   -1.6,   -2.2,   -1.3,   -0.3,   -0.2,    0.0,  999.0,    0.3,    0.2,    0.1,   -0.3,   -0.1,    0.1,  999.0,    0.0,   -0.1,  999.0,   -0.2,  999.0,  999.0,  999.0,  999.0,  999.0,   -0.1,    0.3,  999.0,  999.0,  999.0,   -0.4,    0.2,  999.0,  999.0,  999.0,  999.0,    0.1,  999.0,   -0.1,  999.0,    0.1,   -0.2,  999.0,  999.0,  999.0,  999.0,  999.0,  999.0,  999.0,  999.0,  999.0,  999.0,  999.0,  999.0,  999.0,  999.0,  999.0,  999.0,  999.0,  999.0,  999.0,  999.0,  999.0,  999.0,  999.0,  999.0
